BAW53C EGKK-KMCO

Flight info

Callsign BAW53C
Flight time 9h 18m
Altitude 36000
Route IMVUR N63 SAM N19 ADKIK DCT FONZU DCT LESLU/M084F360 DCT DINIM DCT 50N020W 48N030W 47N040W 44N050W/M084F380 41N060W DCT KINER/M084F400 M202 UKOKA/N0480F400 M202 HOBEE AR6 HIBAC ALYNA4
Aircraft B772/H-SDE2E3FGHIJ5LORVWXY/LB1D1

Departure

Time 2026-05-05 01:01
Airport London Gatwick Airport (EGKK)

Arrival

Time 2026-05-05 10:19
Airport Orlando International Airport (KMCO)
Time Latitude Longitude Altitude Speed Heading
2026-05-05 00:11 51.15566 -0.17101 208 ft 0 kts 168°
2026-05-05 00:48 51.15581 -0.17106 219 ft 4 kts 168°
2026-05-05 00:48 51.15600 -0.17113 211 ft 2 kts 168°
2026-05-05 00:48 51.15624 -0.17114 218 ft 4 kts 211°
2026-05-05 00:48 51.15637 -0.17087 208 ft 4 kts 258°
2026-05-05 00:49 51.15642 -0.17047 208 ft 2 kts 258°
2026-05-05 00:49 51.15642 -0.17044 208 ft 0 kts 258°
2026-05-05 00:52 51.15632 -0.17124 211 ft 11 kts 258°
2026-05-05 00:53 51.15622 -0.17191 212 ft 1 kts 257°
2026-05-05 00:53 51.15621 -0.17199 219 ft 1 kts 257°
2026-05-05 00:53 51.15620 -0.17207 218 ft 1 kts 257°
2026-05-05 00:53 51.15619 -0.17215 208 ft 1 kts 257°
2026-05-05 00:54 51.15615 -0.17244 208 ft 7 kts 256°
2026-05-05 00:54 51.15600 -0.17333 212 ft 6 kts 256°
2026-05-05 00:54 51.15588 -0.17396 220 ft 6 kts 244°
2026-05-05 00:54 51.15554 -0.17431 220 ft 6 kts 192°
2026-05-05 00:55 51.15508 -0.17423 212 ft 8 kts 170°
2026-05-05 00:55 51.15452 -0.17406 218 ft 8 kts 168°
2026-05-05 00:55 51.15381 -0.17380 218 ft 13 kts 167°
2026-05-05 00:55 51.15306 -0.17425 210 ft 14 kts 248°
2026-05-05 00:56 51.15274 -0.17636 213 ft 24 kts 258°
2026-05-05 00:56 51.15236 -0.17910 210 ft 27 kts 257°
2026-05-05 00:56 51.15195 -0.18205 218 ft 27 kts 257°
2026-05-05 00:56 51.15162 -0.18504 210 ft 27 kts 258°
2026-05-05 00:57 51.15121 -0.18801 213 ft 27 kts 257°
2026-05-05 00:57 51.15077 -0.19111 212 ft 30 kts 257°
2026-05-05 00:57 51.15028 -0.19456 219 ft 33 kts 258°
2026-05-05 00:57 51.14979 -0.19826 216 ft 35 kts 257°
2026-05-05 00:58 51.14925 -0.20219 211 ft 37 kts 257°
2026-05-05 00:58 51.14873 -0.20595 211 ft 33 kts 257°
2026-05-05 00:58 51.14827 -0.20927 218 ft 30 kts 257°
2026-05-05 00:58 51.14775 -0.21248 210 ft 30 kts 257°
2026-05-05 00:59 51.14689 -0.21380 215 ft 18 kts 156°
2026-05-05 00:59 51.14575 -0.21292 209 ft 18 kts 155°
2026-05-05 00:59 51.14527 -0.21130 218 ft 18 kts 80°
2026-05-05 00:59 51.14556 -0.20928 217 ft 24 kts 75°
2026-05-05 01:00 51.14629 -0.20400 217 ft 78 kts 77°
2026-05-05 01:00 51.14786 -0.19252 219 ft 132 kts 77°
2026-05-05 01:00 51.15017 -0.17579 294 ft 171 kts 77°
2026-05-05 01:00 51.15279 -0.15704 766 ft 177 kts 78°
2026-05-05 01:01 51.15549 -0.13787 1426 ft 174 kts 77°
2026-05-05 01:01 51.15819 -0.11902 1892 ft 177 kts 77°
2026-05-05 01:01 51.16110 -0.09982 2143 ft 185 kts 76°
2026-05-05 01:01 51.16404 -0.07924 2352 ft 196 kts 74°
2026-05-05 01:02 51.17122 -0.06031 2415 ft 212 kts 38°
2026-05-05 01:02 51.18478 -0.05111 2719 ft 217 kts
2026-05-05 01:02 51.19981 -0.05301 3000 ft 221 kts 345°
2026-05-05 01:02 51.21460 -0.06105 3147 ft 231 kts 330°
2026-05-05 01:03 51.22682 -0.07831 2971 ft 240 kts 302°
2026-05-05 01:03 51.23116 -0.10428 3193 ft 249 kts 264°
2026-05-05 01:03 51.22769 -0.13134 3568 ft 256 kts 256°
2026-05-05 01:03 51.22305 -0.15953 3367 ft 261 kts 256°
2026-05-05 01:04 51.21873 -0.18728 3478 ft 258 kts 257°
2026-05-05 01:04 51.21103 -0.24456 4461 ft 268 kts 259°
2026-05-05 01:04 51.20752 -0.27377 5037 ft 269 kts 260°
2026-05-05 01:05 51.20409 -0.30315 5578 ft 270 kts 260°
2026-05-05 01:05 51.20068 -0.33223 6092 ft 273 kts 260°
2026-05-05 01:05 51.19706 -0.36206 6627 ft 275 kts 259°
2026-05-05 01:05 51.19317 -0.39203 7128 ft 277 kts 259°
2026-05-05 01:06 51.18925 -0.42213 7618 ft 280 kts 259°
2026-05-05 01:06 51.18527 -0.45281 8103 ft 282 kts 259°
2026-05-05 01:06 51.18130 -0.48349 8577 ft 284 kts 258°
2026-05-05 01:06 51.17727 -0.51453 9038 ft 286 kts 258°
2026-05-05 01:07 51.17263 -0.54539 9454 ft 288 kts 251°
2026-05-05 01:07 51.16524 -0.57540 9856 ft 291 kts 246°
2026-05-05 01:07 51.15692 -0.60495 10258 ft 296 kts 245°
2026-05-05 01:07 51.14818 -0.63575 10391 ft 313 kts 246°
2026-05-05 01:08 51.13910 -0.66823 10535 ft 330 kts 246°
2026-05-05 01:08 51.12963 -0.70264 10665 ft 349 kts 246°
2026-05-05 01:08 51.11974 -0.73901 10873 ft 365 kts 246°
2026-05-05 01:08 51.10969 -0.77618 11311 ft 375 kts 246°
2026-05-05 01:09 51.09932 -0.81464 11915 ft 381 kts 246°
2026-05-05 01:09 51.08882 -0.85361 12670 ft 384 kts 246°
2026-05-05 01:09 51.07838 -0.89235 13459 ft 387 kts 246°
2026-05-05 01:09 51.06769 -0.93188 14231 ft 391 kts 246°
2026-05-05 01:10 51.05690 -0.97170 14954 ft 395 kts 246°
2026-05-05 01:10 51.04596 -1.01203 15657 ft 399 kts 246°
2026-05-05 01:10 51.03488 -1.05274 16379 ft 403 kts 246°
2026-05-05 01:10 51.02372 -1.09374 17089 ft 406 kts 246°
2026-05-05 01:11 51.01244 -1.13513 17782 ft 410 kts 246°
2026-05-05 01:11 51.00108 -1.17684 18452 ft 414 kts 246°
2026-05-05 01:11 50.98956 -1.21898 19108 ft 418 kts 246°
2026-05-05 01:11 50.97789 -1.26163 19747 ft 422 kts 246°
2026-05-05 01:12 50.96626 -1.30445 20355 ft 425 kts 248°
2026-05-05 01:12 50.95760 -1.34958 20893 ft 431 kts 258°
2026-05-05 01:12 50.95443 -1.39704 21482 ft 435 kts 268°
2026-05-05 01:12 50.95563 -1.44505 22029 ft 437 kts 273°
2026-05-05 01:13 50.95767 -1.49351 22524 ft 442 kts 273°
2026-05-05 01:13 50.95953 -1.54179 23035 ft 446 kts 273°
2026-05-05 01:13 50.96132 -1.59103 23548 ft 449 kts 272°
2026-05-05 01:13 50.96305 -1.64061 24038 ft 452 kts 272°
2026-05-05 01:14 50.96472 -1.69056 24512 ft 455 kts 272°
2026-05-05 01:14 50.96635 -1.74084 24958 ft 457 kts 272°
2026-05-05 01:14 50.96797 -1.79126 25401 ft 460 kts 272°
2026-05-05 01:14 50.96958 -1.84207 25839 ft 462 kts 272°
2026-05-05 01:15 50.97117 -1.89306 26237 ft 464 kts 272°
2026-05-05 01:15 50.97274 -1.94434 26621 ft 466 kts 272°
2026-05-05 01:15 50.97427 -1.99573 26989 ft 468 kts 271°
2026-05-05 01:15 50.97547 -2.04721 27345 ft 470 kts 271°
2026-05-05 01:16 50.97645 -2.09896 27674 ft 472 kts 271°
2026-05-05 01:16 50.97748 -2.15123 27968 ft 475 kts 271°
2026-05-05 01:16 50.97866 -2.20395 28069 ft 482 kts 271°
2026-05-05 01:16 50.97997 -2.25656 28297 ft 484 kts 271°
2026-05-05 01:17 50.98138 -2.30975 28749 ft 481 kts 271°
2026-05-05 01:17 50.98283 -2.36275 29126 ft 479 kts 271°
2026-05-05 01:17 50.98427 -2.41553 29456 ft 478 kts 271°
2026-05-05 01:17 50.98567 -2.46801 30015 ft 472 kts 271°
2026-05-05 01:18 50.98705 -2.51979 30587 ft 466 kts 271°
2026-05-05 01:18 50.98838 -2.57095 31070 ft 463 kts 271°
2026-05-05 01:18 50.98966 -2.62196 31445 ft 462 kts 271°
2026-05-05 01:18 50.99049 -2.65574 31638 ft 462 kts 271°
2026-05-05 01:19 50.99174 -2.70669 31904 ft 463 kts 271°
2026-05-05 01:19 50.99297 -2.75785 32197 ft 463 kts 271°
2026-05-05 01:19 50.99417 -2.80886 32508 ft 462 kts 271°
2026-05-05 01:19 50.99534 -2.85997 32787 ft 463 kts 271°
2026-05-05 01:20 50.99649 -2.91081 33069 ft 462 kts 271°
2026-05-05 01:20 50.99763 -2.96186 33340 ft 462 kts 271°
2026-05-05 01:20 50.99873 -3.01288 33600 ft 462 kts 271°
2026-05-05 01:20 50.99982 -3.06395 33876 ft 462 kts 271°
2026-05-05 01:21 51.00087 -3.11485 34158 ft 461 kts 271°
2026-05-05 01:21 51.00190 -3.16578 34405 ft 462 kts 271°
2026-05-05 01:21 51.00289 -3.21686 34646 ft 462 kts 271°
2026-05-05 01:21 51.00391 -3.26782 34888 ft 462 kts 271°
2026-05-05 01:22 51.00490 -3.31881 35112 ft 462 kts 271°
2026-05-05 01:22 51.00588 -3.36981 35341 ft 462 kts 271°
2026-05-05 01:22 51.00682 -3.42084 35578 ft 462 kts 271°
2026-05-05 01:22 51.00773 -3.47195 35817 ft 462 kts 271°
2026-05-05 01:23 51.00864 -3.52293 35949 ft 464 kts 271°
2026-05-05 01:23 51.00949 -3.57365 36004 ft 466 kts 271°
2026-05-05 01:23 51.01115 -3.67631 36022 ft 463 kts 271°
2026-05-05 01:24 51.01272 -3.77839 36025 ft 461 kts 271°
2026-05-05 01:24 51.01422 -3.88019 36028 ft 461 kts 271°
2026-05-05 01:25 51.01561 -3.98188 36030 ft 461 kts 271°
2026-05-05 01:25 51.01690 -4.08396 36026 ft 463 kts 271°
2026-05-05 01:26 51.01812 -4.18631 36029 ft 464 kts 271°
2026-05-05 01:26 51.01925 -4.28889 36034 ft 465 kts 271°
2026-05-05 01:27 51.02029 -4.39169 36028 ft 466 kts 271°
2026-05-05 01:27 51.02126 -4.49482 36029 ft 467 kts 271°
2026-05-05 01:28 51.02215 -4.59787 36025 ft 467 kts 271°
2026-05-05 01:28 51.02295 -4.70083 36029 ft 466 kts 270°
2026-05-05 01:29 51.02362 -4.80306 36027 ft 465 kts 270°
2026-05-05 01:29 51.02416 -4.90590 36027 ft 465 kts 270°
2026-05-05 01:30 51.02470 -5.00867 36027 ft 465 kts 270°
2026-05-05 01:30 51.02514 -5.11146 36028 ft 466 kts 270°
2026-05-05 01:31 51.02544 -5.21438 36029 ft 466 kts 270°
2026-05-05 01:31 51.02571 -5.31723 36029 ft 466 kts 270°
2026-05-05 01:32 51.02584 -5.42028 36025 ft 466 kts 270°
2026-05-05 01:32 51.02590 -5.52335 36030 ft 467 kts 270°
2026-05-05 01:33 51.02585 -5.62642 36030 ft 467 kts 270°
2026-05-05 01:33 51.02575 -5.72973 36028 ft 467 kts 270°
2026-05-05 01:34 51.02554 -5.83301 36030 ft 468 kts 270°
2026-05-05 01:34 51.02521 -5.93582 36025 ft 468 kts 270°
2026-05-05 01:35 51.02481 -6.03924 36026 ft 467 kts 270°
2026-05-05 01:35 51.02433 -6.14249 36030 ft 467 kts 270°
2026-05-05 01:36 51.02377 -6.24602 36027 ft 468 kts 270°
2026-05-05 01:36 51.02307 -6.34921 36031 ft 467 kts 270°
2026-05-05 01:37 51.02230 -6.45256 36053 ft 467 kts 270°
2026-05-05 01:37 51.02147 -6.55575 36047 ft 468 kts 270°
2026-05-05 01:38 51.02054 -6.65845 36062 ft 467 kts 270°
2026-05-05 01:38 51.01945 -6.76175 36071 ft 467 kts 270°
2026-05-05 01:39 51.01835 -6.86492 36067 ft 467 kts 269°
2026-05-05 01:39 51.01714 -6.96810 36074 ft 467 kts 269°
2026-05-05 01:40 51.01584 -7.07133 36073 ft 467 kts 269°
2026-05-05 01:40 51.01444 -7.17446 36075 ft 467 kts 269°
2026-05-05 01:41 51.01298 -7.27773 36075 ft 467 kts 269°
2026-05-05 01:41 51.01138 -7.38033 36087 ft 468 kts 269°
2026-05-05 01:42 51.00971 -7.48375 36082 ft 468 kts 269°
2026-05-05 01:42 51.00795 -7.58701 36083 ft 468 kts 269°
2026-05-05 01:43 51.00609 -7.69015 36082 ft 467 kts 269°
2026-05-05 01:43 51.00415 -7.79327 36085 ft 467 kts 269°
2026-05-05 01:44 51.00214 -7.89648 36086 ft 467 kts 269°
2026-05-05 01:44 51.00014 -7.99892 36082 ft 467 kts 270°
2026-05-05 01:45 51.00243 -8.10193 36088 ft 466 kts 274°
2026-05-05 01:45 51.00566 -8.20467 36085 ft 465 kts 274°
2026-05-05 01:46 51.00870 -8.30717 36093 ft 465 kts 274°
2026-05-05 01:46 51.01153 -8.40979 36093 ft 465 kts 273°
2026-05-05 01:47 51.01418 -8.51193 36094 ft 466 kts 273°
2026-05-05 01:47 51.01674 -8.61473 36104 ft 465 kts 273°
2026-05-05 01:48 51.01923 -8.71745 36102 ft 465 kts 273°
2026-05-05 01:48 51.02160 -8.82028 36101 ft 465 kts 273°
2026-05-05 01:49 51.02389 -8.92106 36102 ft 466 kts 273°
2026-05-05 01:49 51.02614 -9.02543 36096 ft 466 kts 273°
2026-05-05 01:50 51.02826 -9.12829 36091 ft 466 kts 273°
2026-05-05 01:50 51.03031 -9.23104 36094 ft 465 kts 273°
2026-05-05 01:51 51.03224 -9.33381 36091 ft 464 kts 273°
2026-05-05 01:51 51.03409 -9.43624 36092 ft 464 kts 273°
2026-05-05 01:52 51.03584 -9.53871 36092 ft 464 kts 273°
2026-05-05 01:52 51.03753 -9.64065 36093 ft 464 kts 272°
2026-05-05 01:53 51.03912 -9.74262 36093 ft 464 kts 272°
2026-05-05 01:53 51.04059 -9.84453 36094 ft 464 kts 272°
2026-05-05 01:54 51.04198 -9.94721 36096 ft 464 kts 272°
2026-05-05 01:54 51.04335 -10.04979 36094 ft 464 kts 272°
2026-05-05 01:55 51.04453 -10.15236 36093 ft 463 kts 272°
2026-05-05 01:55 51.04565 -10.25464 36091 ft 462 kts 272°
2026-05-05 01:56 51.04667 -10.35681 36092 ft 462 kts 272°
2026-05-05 01:56 51.04762 -10.45895 36091 ft 462 kts 272°
2026-05-05 01:57 51.04850 -10.56029 36092 ft 461 kts 272°
2026-05-05 01:57 51.04931 -10.66283 36084 ft 461 kts 272°
2026-05-05 01:58 51.05000 -10.76422 36082 ft 461 kts 272°
2026-05-05 01:58 51.05056 -10.86543 36082 ft 461 kts 272°
2026-05-05 01:59 51.05108 -10.96741 36082 ft 461 kts 272°
2026-05-05 01:59 51.05149 -11.06926 36085 ft 461 kts 272°
2026-05-05 02:00 51.05184 -11.17108 36097 ft 460 kts 271°
2026-05-05 02:00 51.05206 -11.27086 36104 ft 460 kts 271°
2026-05-05 02:01 51.05219 -11.37309 36100 ft 460 kts 271°
2026-05-05 02:01 51.05228 -11.47437 36101 ft 460 kts 271°
2026-05-05 02:02 51.05227 -11.57617 36102 ft 460 kts 271°
2026-05-05 02:02 51.05216 -11.67767 36101 ft 459 kts 271°
2026-05-05 02:03 51.05195 -11.77918 36102 ft 459 kts 271°
2026-05-05 02:03 51.05164 -11.87995 36099 ft 458 kts 271°
2026-05-05 02:04 51.05129 -11.98117 36102 ft 458 kts 271°
2026-05-05 02:04 51.05083 -12.08238 36107 ft 458 kts 271°
2026-05-05 02:05 51.05028 -12.18356 36099 ft 457 kts 271°
2026-05-05 02:05 51.04968 -12.28449 36100 ft 456 kts 271°
2026-05-05 02:06 51.04908 -12.36830 36102 ft 456 kts 270°
2026-05-05 02:06 51.04826 -12.46922 36101 ft 456 kts 270°
2026-05-05 02:07 51.04738 -12.57009 36101 ft 456 kts 270°
2026-05-05 02:07 51.04639 -12.67088 36103 ft 456 kts 270°
2026-05-05 02:08 51.04541 -12.77167 36100 ft 456 kts 270°
2026-05-05 02:08 51.04426 -12.87179 36103 ft 455 kts 270°
2026-05-05 02:09 51.04302 -12.97239 36101 ft 455 kts 270°
2026-05-05 02:09 51.04172 -13.07312 36103 ft 455 kts 270°
2026-05-05 02:10 51.04031 -13.17345 36101 ft 456 kts 270°
2026-05-05 02:10 51.03884 -13.27408 36099 ft 455 kts 270°
2026-05-05 02:11 51.03729 -13.37459 36102 ft 455 kts 270°
2026-05-05 02:11 51.03561 -13.47517 36100 ft 455 kts 270°
2026-05-05 02:12 51.03299 -13.62601 36100 ft 455 kts 269°
2026-05-05 02:13 51.03112 -13.72657 36103 ft 455 kts 269°
2026-05-05 02:13 51.02915 -13.82701 36099 ft 455 kts 269°
2026-05-05 02:14 51.02712 -13.92667 36103 ft 454 kts 269°
2026-05-05 02:14 51.02502 -14.02688 36101 ft 454 kts 269°
2026-05-05 02:15 51.02282 -14.12669 36105 ft 454 kts 269°
2026-05-05 02:15 51.02053 -14.22651 36102 ft 454 kts 269°
2026-05-05 02:16 51.01817 -14.32676 36106 ft 454 kts 269°
2026-05-05 02:16 51.01572 -14.42695 36113 ft 453 kts 269°
2026-05-05 02:17 51.01319 -14.52632 36112 ft 453 kts 269°
2026-05-05 02:17 51.01055 -14.62618 36110 ft 453 kts 269°
2026-05-05 02:18 51.00786 -14.72617 36109 ft 453 kts 268°
2026-05-05 02:18 51.00505 -14.82612 36109 ft 453 kts 268°
2026-05-05 02:19 51.00220 -14.92610 36115 ft 453 kts 268°
2026-05-05 02:19 50.99578 -15.02562 36109 ft 454 kts 259°
2026-05-05 02:20 50.97911 -15.12198 36109 ft 455 kts 255°
2026-05-05 02:20 50.96181 -15.21735 36110 ft 455 kts 255°
2026-05-05 02:21 50.94463 -15.31391 36121 ft 455 kts 255°
2026-05-05 02:21 50.92732 -15.41064 36121 ft 455 kts 255°
2026-05-05 02:22 50.90996 -15.50720 36116 ft 455 kts 255°
2026-05-05 02:22 50.89264 -15.60362 36116 ft 455 kts 255°
2026-05-05 02:23 50.87519 -15.70006 36121 ft 455 kts 255°
2026-05-05 02:23 50.85765 -15.79634 36124 ft 455 kts 255°
2026-05-05 02:24 50.84018 -15.89164 36123 ft 455 kts 255°
2026-05-05 02:24 50.82255 -15.98761 36148 ft 454 kts 255°
2026-05-05 02:25 50.80481 -16.08346 36148 ft 454 kts 255°
2026-05-05 02:25 50.78700 -16.17931 36146 ft 454 kts 255°
2026-05-05 02:26 50.76910 -16.27508 36147 ft 454 kts 255°
2026-05-05 02:26 50.75107 -16.37078 36147 ft 454 kts 255°
2026-05-05 02:27 50.73328 -16.46549 36158 ft 454 kts 254°
2026-05-05 02:27 50.71523 -16.56032 36147 ft 455 kts 254°
2026-05-05 02:28 50.69698 -16.65596 36145 ft 455 kts 254°
2026-05-05 02:28 50.67869 -16.75142 36148 ft 454 kts 254°
2026-05-05 02:29 50.66032 -16.84673 36148 ft 454 kts 254°
2026-05-05 02:29 50.64188 -16.94208 36149 ft 454 kts 254°
2026-05-05 02:30 50.62345 -17.03674 36148 ft 454 kts 254°
2026-05-05 02:30 50.60490 -17.13170 36147 ft 454 kts 254°
2026-05-05 02:31 50.58624 -17.22649 36157 ft 453 kts 254°
2026-05-05 02:31 50.56748 -17.32147 36158 ft 454 kts 254°
2026-05-05 02:32 50.54864 -17.41641 36156 ft 454 kts 253°
2026-05-05 02:32 50.52990 -17.51053 36158 ft 455 kts 253°
2026-05-05 02:33 50.51090 -17.60530 36160 ft 455 kts 253°
2026-05-05 02:33 50.49181 -17.70003 36167 ft 455 kts 253°
2026-05-05 02:34 50.47264 -17.79478 36167 ft 455 kts 253°
2026-05-05 02:34 50.45342 -17.88934 36168 ft 455 kts 253°
2026-05-05 02:35 50.43410 -17.98384 36164 ft 454 kts 253°
2026-05-05 02:35 50.41473 -18.07822 36164 ft 455 kts 253°
2026-05-05 02:36 50.39528 -18.17258 36165 ft 455 kts 253°
2026-05-05 02:36 50.37573 -18.26678 36165 ft 455 kts 253°
2026-05-05 02:37 50.35613 -18.36095 36166 ft 455 kts 253°
2026-05-05 02:37 50.33643 -18.45511 36168 ft 455 kts 253°
2026-05-05 02:38 50.31664 -18.54921 36165 ft 454 kts 253°
2026-05-05 02:38 50.29688 -18.64280 36167 ft 455 kts 253°
2026-05-05 02:39 50.27710 -18.73621 36167 ft 455 kts 253°
2026-05-05 02:39 50.25712 -18.83008 36164 ft 455 kts 253°
2026-05-05 02:40 50.23698 -18.92384 36175 ft 455 kts 253°
2026-05-05 02:40 50.21682 -19.01758 36178 ft 455 kts 252°
2026-05-05 02:41 50.19677 -19.11052 36175 ft 455 kts 253°
2026-05-05 02:41 50.17645 -19.20420 36174 ft 456 kts 252°
2026-05-05 02:42 50.15604 -19.29780 36175 ft 456 kts 252°
2026-05-05 02:42 50.13564 -19.39090 36178 ft 457 kts 252°
2026-05-05 02:43 50.11490 -19.48512 36175 ft 457 kts 252°
2026-05-05 02:43 50.09433 -19.57830 36179 ft 458 kts 252°
2026-05-05 02:44 50.07350 -19.67204 36174 ft 458 kts 252°
2026-05-05 02:44 50.05262 -19.76565 36172 ft 458 kts 252°
2026-05-05 02:45 50.03166 -19.85929 36175 ft 458 kts 252°
2026-05-05 02:45 50.01065 -19.95284 36179 ft 457 kts 252°
2026-05-05 02:46 49.99216 -20.04726 36187 ft 456 kts 258°
2026-05-05 02:46 49.97804 -20.14267 36184 ft 456 kts 259°
2026-05-05 02:47 49.96375 -20.23872 36183 ft 456 kts 258°
2026-05-05 02:47 49.94920 -20.33468 36185 ft 457 kts 258°
2026-05-05 02:48 49.93446 -20.43065 36188 ft 457 kts 258°
2026-05-05 02:48 49.91970 -20.52635 36186 ft 457 kts 258°
2026-05-05 02:49 49.90478 -20.62219 36185 ft 457 kts 258°
2026-05-05 02:49 49.88978 -20.71795 36184 ft 456 kts 258°
2026-05-05 02:50 49.87475 -20.81337 36183 ft 455 kts 258°
2026-05-05 02:50 49.85972 -20.90848 36182 ft 455 kts 258°
2026-05-05 02:51 49.84459 -21.00373 36189 ft 454 kts 257°
2026-05-05 02:51 49.82939 -21.09861 36196 ft 454 kts 257°
2026-05-05 02:52 49.81668 -21.17744 36194 ft 453 kts 257°
2026-05-05 02:52 49.79888 -21.28763 36195 ft 454 kts 257°
2026-05-05 02:53 49.78597 -21.36695 36193 ft 454 kts 257°
2026-05-05 02:53 49.77054 -21.46114 36197 ft 454 kts 257°
2026-05-05 02:54 49.75495 -21.55576 36195 ft 454 kts 257°
2026-05-05 02:54 49.73931 -21.65039 36190 ft 454 kts 257°
2026-05-05 02:55 49.72353 -21.74519 36197 ft 454 kts 257°
2026-05-05 02:55 49.70776 -21.83963 36188 ft 454 kts 257°
2026-05-05 02:56 49.69189 -21.93400 36195 ft 453 kts 256°
2026-05-05 02:56 49.67609 -22.02759 36202 ft 453 kts 256°
2026-05-05 02:57 49.66010 -22.12167 36202 ft 453 kts 256°
2026-05-05 02:57 49.64401 -22.21569 36204 ft 453 kts 256°
2026-05-05 02:58 49.62779 -22.30973 36203 ft 453 kts 256°
2026-05-05 02:58 49.61156 -22.40369 36204 ft 453 kts 256°
2026-05-05 02:59 49.59539 -22.49704 36204 ft 453 kts 256°
2026-05-05 02:59 49.57906 -22.59027 36204 ft 453 kts 256°
2026-05-05 03:00 49.56264 -22.68387 36207 ft 452 kts 256°
2026-05-05 03:00 49.54614 -22.77739 36213 ft 452 kts 256°
2026-05-05 03:01 49.52967 -22.87034 36214 ft 453 kts 256°
2026-05-05 03:01 49.51298 -22.96385 36209 ft 453 kts 256°
2026-05-05 03:02 49.49618 -23.05751 36218 ft 453 kts 256°
2026-05-05 03:02 49.47935 -23.15087 36266 ft 452 kts 256°
2026-05-05 03:03 49.46251 -23.24397 36282 ft 452 kts 255°
2026-05-05 03:03 49.44553 -23.33735 36289 ft 453 kts 255°
2026-05-05 03:04 49.42861 -23.42980 36292 ft 452 kts 255°
2026-05-05 03:04 49.41157 -23.52257 36280 ft 450 kts 255°
2026-05-05 03:05 49.39451 -23.61462 36280 ft 447 kts 255°
2026-05-05 03:05 49.37748 -23.70635 36285 ft 446 kts 255°
2026-05-05 03:06 49.36037 -23.79804 36286 ft 447 kts 255°
2026-05-05 03:06 49.34321 -23.88962 36285 ft 447 kts 255°
2026-05-05 03:07 49.32589 -23.98130 36287 ft 447 kts 255°
2026-05-05 03:07 49.30854 -24.07291 36287 ft 448 kts 255°
2026-05-05 03:08 49.29112 -24.16456 36286 ft 448 kts 255°
2026-05-05 03:08 49.27358 -24.25623 36287 ft 448 kts 255°
2026-05-05 03:09 49.25604 -24.34736 36288 ft 448 kts 255°
2026-05-05 03:09 49.23839 -24.43891 36294 ft 448 kts 254°
2026-05-05 03:10 49.22061 -24.53028 36294 ft 448 kts 254°
2026-05-05 03:10 49.20280 -24.62176 36295 ft 448 kts 254°
2026-05-05 03:11 49.18491 -24.71304 36295 ft 448 kts 254°
2026-05-05 03:11 49.16694 -24.80438 36295 ft 448 kts 254°
2026-05-05 03:12 49.14891 -24.89559 36293 ft 448 kts 254°
2026-05-05 03:12 49.13078 -24.98669 36293 ft 448 kts 254°
2026-05-05 03:13 49.11274 -25.07705 36298 ft 449 kts 254°
2026-05-05 03:13 49.09448 -25.16822 36293 ft 449 kts 254°
2026-05-05 03:14 49.07613 -25.25920 36322 ft 448 kts 253°
2026-05-05 03:14 49.05772 -25.35008 36345 ft 448 kts 253°
2026-05-05 03:15 49.03925 -25.44088 36353 ft 448 kts 253°
2026-05-05 03:15 49.02074 -25.53172 36351 ft 449 kts 253°
2026-05-05 03:16 49.00203 -25.62264 36355 ft 449 kts 253°
2026-05-05 03:16 48.98330 -25.71336 36349 ft 449 kts 253°
2026-05-05 03:17 48.96455 -25.80404 36347 ft 449 kts 253°
2026-05-05 03:17 48.94583 -25.89404 36352 ft 449 kts 253°
2026-05-05 03:18 48.92690 -25.98461 36349 ft 449 kts 253°
2026-05-05 03:18 48.90790 -26.07508 36352 ft 449 kts 253°
2026-05-05 03:19 48.87930 -26.21053 36345 ft 449 kts 253°
2026-05-05 03:19 48.86023 -26.30030 36352 ft 449 kts 253°
2026-05-05 03:20 48.84101 -26.39039 36350 ft 448 kts 253°
2026-05-05 03:20 48.82175 -26.48038 36349 ft 448 kts 253°
2026-05-05 03:21 48.80243 -26.57032 36348 ft 448 kts 253°
2026-05-05 03:21 48.78302 -26.66018 36349 ft 448 kts 253°
2026-05-05 03:22 48.76350 -26.75002 36352 ft 448 kts 253°
2026-05-05 03:22 48.74406 -26.83918 36350 ft 449 kts 253°
2026-05-05 03:23 48.72439 -26.92896 36350 ft 449 kts 253°
2026-05-05 03:23 48.70469 -27.01863 36355 ft 449 kts 253°
2026-05-05 03:24 48.68487 -27.10837 36347 ft 448 kts 254°
2026-05-05 03:24 48.66502 -27.19790 36356 ft 448 kts 254°
2026-05-05 03:25 48.64508 -27.28733 36361 ft 449 kts 254°
2026-05-05 03:25 48.62521 -27.37613 36359 ft 448 kts 254°
2026-05-05 03:26 48.60517 -27.46549 36359 ft 448 kts 254°
2026-05-05 03:26 48.58509 -27.55459 36359 ft 448 kts 254°
2026-05-05 03:27 48.56499 -27.64339 36362 ft 447 kts 254°
2026-05-05 03:27 48.54470 -27.73244 36358 ft 447 kts 254°
2026-05-05 03:28 48.52438 -27.82119 36358 ft 446 kts 255°
2026-05-05 03:28 48.50425 -27.90935 36360 ft 447 kts 254°
2026-05-05 03:29 48.48385 -27.99763 36354 ft 447 kts 255°
2026-05-05 03:29 48.46351 -28.08602 36346 ft 446 kts 255°
2026-05-05 03:30 48.44299 -28.17421 36351 ft 446 kts 255°
2026-05-05 03:30 48.42243 -28.26257 36370 ft 448 kts 254°
2026-05-05 03:31 48.40167 -28.35059 36356 ft 448 kts 255°
2026-05-05 03:31 48.38098 -28.43899 36364 ft 447 kts 255°
2026-05-05 03:32 48.36016 -28.52700 36361 ft 447 kts 254°
2026-05-05 03:32 48.33933 -28.61513 36360 ft 447 kts 254°
2026-05-05 03:33 48.31850 -28.70265 36359 ft 448 kts 254°
2026-05-05 03:33 48.29743 -28.79060 36358 ft 447 kts 254°
2026-05-05 03:34 48.27642 -28.87834 36358 ft 446 kts 254°
2026-05-05 03:34 48.25537 -28.96589 36359 ft 446 kts 254°
2026-05-05 03:35 48.23422 -29.05328 36356 ft 445 kts 254°
2026-05-05 03:35 48.21306 -29.14061 36359 ft 445 kts 254°
2026-05-05 03:36 48.19184 -29.22780 36362 ft 445 kts 254°
2026-05-05 03:36 48.17049 -29.31496 36359 ft 446 kts 254°
2026-05-05 03:37 48.14904 -29.40216 36359 ft 446 kts 254°
2026-05-05 03:37 48.12756 -29.48928 36357 ft 446 kts 254°
2026-05-05 03:38 48.10607 -29.57619 36360 ft 445 kts 253°
2026-05-05 03:38 48.08459 -29.66258 36359 ft 445 kts 254°
2026-05-05 03:39 48.06298 -29.74925 36358 ft 445 kts 254°
2026-05-05 03:39 48.04133 -29.83580 36358 ft 444 kts 253°
2026-05-05 03:40 48.01958 -29.92231 36356 ft 444 kts 253°
2026-05-05 03:40 48.00362 -29.99486 36353 ft 440 kts 261°
2026-05-05 03:41 47.99461 -30.08457 36359 ft 435 kts 269°
2026-05-05 03:41 47.98988 -30.17467 36360 ft 435 kts 269°
2026-05-05 03:42 47.98494 -30.26492 36334 ft 436 kts 269°
2026-05-05 03:42 47.97981 -30.35473 36334 ft 436 kts 269°
2026-05-05 03:43 47.97452 -30.44513 36324 ft 437 kts 268°
2026-05-05 03:43 47.96913 -30.53549 36318 ft 437 kts 268°
2026-05-05 03:44 47.96368 -30.62599 36318 ft 437 kts 268°
2026-05-05 03:44 47.95817 -30.71633 36319 ft 437 kts 268°
2026-05-05 03:45 47.95263 -30.80604 36318 ft 437 kts 268°
2026-05-05 03:45 47.94696 -30.89653 36318 ft 438 kts 268°
2026-05-05 03:46 47.94124 -30.98688 36318 ft 437 kts 268°
2026-05-05 03:46 47.93545 -31.07713 36327 ft 438 kts 268°
2026-05-05 03:47 47.92958 -31.16749 36332 ft 438 kts 267°
2026-05-05 03:47 47.92362 -31.25786 36330 ft 438 kts 267°
2026-05-05 03:48 47.91763 -31.34836 36319 ft 438 kts 267°
2026-05-05 03:48 47.91152 -31.43809 36314 ft 438 kts 267°
2026-05-05 03:49 47.90538 -31.52857 36315 ft 438 kts 267°
2026-05-05 03:49 47.89918 -31.61892 36307 ft 438 kts 267°
2026-05-05 03:50 47.89288 -31.70910 36310 ft 438 kts 266°
2026-05-05 03:50 47.88646 -31.79921 36311 ft 437 kts 266°
2026-05-05 03:51 47.88000 -31.88932 36317 ft 437 kts 266°
2026-05-05 03:51 47.87352 -31.97938 36307 ft 437 kts 266°
2026-05-05 03:52 47.86702 -32.06944 36310 ft 437 kts 266°
2026-05-05 03:52 47.86036 -32.15948 36316 ft 437 kts 266°
2026-05-05 03:53 47.85362 -32.24945 36308 ft 437 kts 266°
2026-05-05 03:53 47.84681 -32.33956 36308 ft 437 kts 266°
2026-05-05 03:54 47.84002 -32.42902 36308 ft 438 kts 266°
2026-05-05 03:54 47.83308 -32.51922 36313 ft 438 kts 266°
2026-05-05 03:55 47.82606 -32.60933 36324 ft 438 kts 266°
2026-05-05 03:55 47.81895 -32.69943 36308 ft 439 kts 265°
2026-05-05 03:56 47.81181 -32.78956 36309 ft 439 kts 265°
2026-05-05 03:56 47.80462 -32.87926 36309 ft 439 kts 265°
2026-05-05 03:57 47.79732 -32.96934 36315 ft 439 kts 265°
2026-05-05 03:57 47.78996 -33.05934 36308 ft 438 kts 265°
2026-05-05 03:58 47.78251 -33.14949 36252 ft 439 kts 265°
2026-05-05 03:58 47.77501 -33.23968 36239 ft 439 kts 265°
2026-05-05 03:59 47.76743 -33.32961 36239 ft 438 kts 264°
2026-05-05 03:59 47.75975 -33.41957 36238 ft 438 kts 264°
2026-05-05 04:00 47.75211 -33.50872 36241 ft 437 kts 264°
2026-05-05 04:00 47.74434 -33.59837 36240 ft 438 kts 264°
2026-05-05 04:01 47.73649 -33.68818 36240 ft 437 kts 264°
2026-05-05 04:01 47.72859 -33.77795 36240 ft 438 kts 264°
2026-05-05 04:02 47.72058 -33.86763 36240 ft 438 kts 264°
2026-05-05 04:02 47.71255 -33.95681 36240 ft 438 kts 264°
2026-05-05 04:03 47.70439 -34.04633 36240 ft 438 kts 264°
2026-05-05 04:03 47.69621 -34.13592 36239 ft 438 kts 264°
2026-05-05 04:04 47.68799 -34.22548 36240 ft 437 kts 264°
2026-05-05 04:04 47.67966 -34.31496 36239 ft 437 kts 263°
2026-05-05 04:05 47.67130 -34.40369 36240 ft 437 kts 263°
2026-05-05 04:05 47.66285 -34.49323 36239 ft 437 kts 263°
2026-05-05 04:06 47.65430 -34.58279 36230 ft 438 kts 263°
2026-05-05 04:06 47.64568 -34.67219 36231 ft 438 kts 263°
2026-05-05 04:07 47.63695 -34.76154 36232 ft 438 kts 263°
2026-05-05 04:07 47.62828 -34.85029 36230 ft 438 kts 263°
2026-05-05 04:08 47.61948 -34.93971 36230 ft 438 kts 263°
2026-05-05 04:08 47.61058 -35.02908 36230 ft 438 kts 262°
2026-05-05 04:09 47.60164 -35.11810 36232 ft 438 kts 262°
2026-05-05 04:09 47.59259 -35.20745 36231 ft 438 kts 262°
2026-05-05 04:10 47.58347 -35.29660 36229 ft 438 kts 262°
2026-05-05 04:10 47.57433 -35.38583 36232 ft 438 kts 262°
2026-05-05 04:11 47.56508 -35.47494 36230 ft 438 kts 262°
2026-05-05 04:11 47.55594 -35.56285 36230 ft 437 kts 262°
2026-05-05 04:12 47.54655 -35.65205 36231 ft 437 kts 261°
2026-05-05 04:12 47.53713 -35.74086 36226 ft 437 kts 261°
2026-05-05 04:13 47.52762 -35.82972 36221 ft 437 kts 261°
2026-05-05 04:13 47.51804 -35.91858 36222 ft 437 kts 261°
2026-05-05 04:14 47.50840 -36.00754 36222 ft 437 kts 261°
2026-05-05 04:14 47.49877 -36.09588 36222 ft 437 kts 261°
2026-05-05 04:15 47.48900 -36.18460 36220 ft 437 kts 261°
2026-05-05 04:15 47.47910 -36.27327 36222 ft 437 kts 261°
2026-05-05 04:16 47.46921 -36.36202 36147 ft 438 kts 261°
2026-05-05 04:16 47.45925 -36.45090 36094 ft 438 kts 261°
2026-05-05 04:17 47.44924 -36.53926 36082 ft 437 kts 260°
2026-05-05 04:17 47.43923 -36.62716 36074 ft 437 kts 260°
2026-05-05 04:18 47.42904 -36.71555 36072 ft 436 kts 260°
2026-05-05 04:18 47.41882 -36.80387 36073 ft 436 kts 260°
2026-05-05 04:19 47.40851 -36.89204 36079 ft 436 kts 260°
2026-05-05 04:19 47.39823 -36.97970 36072 ft 437 kts 260°
2026-05-05 04:20 47.38770 -37.06832 36066 ft 438 kts 260°
2026-05-05 04:20 47.37718 -37.15689 36066 ft 438 kts 259°
2026-05-05 04:21 47.36659 -37.24548 36079 ft 438 kts 259°
2026-05-05 04:21 47.35592 -37.33394 36080 ft 438 kts 259°
2026-05-05 04:22 47.34520 -37.42215 36072 ft 438 kts 259°
2026-05-05 04:22 47.33436 -37.51081 36075 ft 438 kts 259°
2026-05-05 04:23 47.32348 -37.59920 36074 ft 438 kts 259°
2026-05-05 04:23 47.31253 -37.68756 36075 ft 438 kts 259°
2026-05-05 04:24 47.30152 -37.77579 36066 ft 438 kts 259°
2026-05-05 04:25 47.28485 -37.90815 36065 ft 438 kts 259°
2026-05-05 04:25 47.27386 -37.99513 36064 ft 438 kts 258°
2026-05-05 04:26 47.26253 -38.08388 36069 ft 437 kts 258°
2026-05-05 04:26 47.25128 -38.17130 36057 ft 437 kts 258°
2026-05-05 04:27 47.23991 -38.25933 36050 ft 437 kts 258°
2026-05-05 04:27 47.22849 -38.34717 36055 ft 437 kts 258°
2026-05-05 04:28 47.21909 -38.41899 36053 ft 437 kts 258°
2026-05-05 04:28 47.20753 -38.50668 36060 ft 437 kts 258°
2026-05-05 04:29 47.19593 -38.59439 36037 ft 436 kts 258°
2026-05-05 04:29 47.18436 -38.68147 36050 ft 436 kts 258°
2026-05-05 04:30 47.17270 -38.76811 36049 ft 436 kts 258°
2026-05-05 04:30 47.16092 -38.85553 36046 ft 436 kts 258°
2026-05-05 04:31 47.14900 -38.94343 36036 ft 436 kts 258°
2026-05-05 04:31 47.13714 -39.03029 36037 ft 436 kts 258°
2026-05-05 04:32 47.12514 -39.11759 36036 ft 435 kts 257°
2026-05-05 04:32 47.11311 -39.20473 36035 ft 436 kts 257°
2026-05-05 04:33 47.10101 -39.29189 36029 ft 435 kts 257°
2026-05-05 04:33 47.08886 -39.37896 36029 ft 435 kts 257°
2026-05-05 04:34 47.07670 -39.46544 36027 ft 435 kts 257°
2026-05-05 04:34 47.06442 -39.55223 36026 ft 435 kts 257°
2026-05-05 04:35 47.05206 -39.63913 36025 ft 435 kts 257°
2026-05-05 04:35 47.03968 -39.72588 36018 ft 434 kts 257°
2026-05-05 04:36 47.02719 -39.81260 36015 ft 434 kts 257°
2026-05-05 04:36 47.01478 -39.89841 36019 ft 434 kts 257°
2026-05-05 04:37 47.00218 -39.98482 36015 ft 434 kts 256°
2026-05-05 04:37 46.98380 -40.06873 36020 ft 432 kts 250°
2026-05-05 04:38 46.96344 -40.15097 36010 ft 432 kts 250°
2026-05-05 04:38 46.94310 -40.23359 36008 ft 431 kts 250°
2026-05-05 04:39 46.92287 -40.31605 36008 ft 430 kts 250°
2026-05-05 04:39 46.90263 -40.39824 36003 ft 429 kts 250°
2026-05-05 04:40 46.88235 -40.48034 35998 ft 428 kts 250°
2026-05-05 04:40 46.86211 -40.56210 35998 ft 428 kts 250°
2026-05-05 04:41 46.84172 -40.64404 36003 ft 428 kts 250°
2026-05-05 04:41 46.82141 -40.72541 36000 ft 428 kts 250°
2026-05-05 04:42 46.80094 -40.80698 35993 ft 427 kts 250°
2026-05-05 04:42 46.78049 -40.88836 35995 ft 426 kts 250°
2026-05-05 04:43 46.76008 -40.96943 35987 ft 426 kts 250°
2026-05-05 04:43 46.73957 -41.05042 35996 ft 425 kts 250°
2026-05-05 04:44 46.71906 -41.13118 35980 ft 424 kts 250°
2026-05-05 04:44 46.69857 -41.21152 35984 ft 423 kts 250°
2026-05-05 04:45 46.67801 -41.29175 35980 ft 422 kts 250°
2026-05-05 04:45 46.65772 -41.37076 35981 ft 421 kts 250°
2026-05-05 04:46 46.63718 -41.45057 35979 ft 420 kts 250°
2026-05-05 04:46 46.61664 -41.52999 35971 ft 418 kts 250°
2026-05-05 04:47 46.59621 -41.60888 35972 ft 416 kts 250°
2026-05-05 04:47 46.57573 -41.68740 35973 ft 414 kts 250°
2026-05-05 04:48 46.55532 -41.76559 35973 ft 413 kts 250°
2026-05-05 04:48 46.53506 -41.84290 35970 ft 412 kts 250°
2026-05-05 04:49 46.51462 -41.92061 35961 ft 412 kts 250°
2026-05-05 04:49 46.49427 -41.99812 35962 ft 409 kts 250°
2026-05-05 04:50 46.47386 -42.07473 35961 ft 409 kts 250°
2026-05-05 04:50 46.45353 -42.15151 35962 ft 408 kts 250°
2026-05-05 04:51 46.43293 -42.22839 35962 ft 409 kts 250°
2026-05-05 04:51 46.41238 -42.30507 35953 ft 408 kts 250°
2026-05-05 04:52 46.39198 -42.38147 35957 ft 409 kts 250°
2026-05-05 04:52 46.37133 -42.45834 35951 ft 409 kts 249°
2026-05-05 04:53 46.35055 -42.53528 35952 ft 411 kts 249°
2026-05-05 04:53 46.32975 -42.61224 35947 ft 412 kts 249°
2026-05-05 04:54 46.30870 -42.68947 35944 ft 413 kts 249°
2026-05-05 04:54 46.28792 -42.76616 35948 ft 411 kts 249°
2026-05-05 04:55 46.26693 -42.84313 35943 ft 412 kts 249°
2026-05-05 04:55 46.24573 -42.92019 35946 ft 412 kts 249°
2026-05-05 04:56 46.22455 -42.99696 35946 ft 412 kts 249°
2026-05-05 04:56 46.20328 -43.07372 35935 ft 412 kts 249°
2026-05-05 04:57 46.18203 -43.15065 35938 ft 413 kts 249°
2026-05-05 04:57 46.16085 -43.22697 35935 ft 412 kts 249°
2026-05-05 04:58 46.13951 -43.30332 35927 ft 411 kts 249°
2026-05-05 04:58 46.11818 -43.37954 35935 ft 408 kts 249°
2026-05-05 04:59 46.09693 -43.45537 35926 ft 407 kts 249°
2026-05-05 04:59 46.07571 -43.53114 35930 ft 408 kts 248°
2026-05-05 05:00 46.05434 -43.60678 35926 ft 407 kts 249°
2026-05-05 05:00 46.03287 -43.68232 35927 ft 408 kts 249°
2026-05-05 05:01 46.01146 -43.75805 35929 ft 408 kts 249°
2026-05-05 05:01 45.99017 -43.83288 35929 ft 406 kts 249°
2026-05-05 05:02 45.96875 -43.90754 35921 ft 406 kts 249°
2026-05-05 05:02 45.94737 -43.98200 35917 ft 406 kts 249°
2026-05-05 05:03 45.92587 -44.05691 35914 ft 405 kts 249°
2026-05-05 05:03 45.90432 -44.13159 35909 ft 404 kts 248°
2026-05-05 05:04 45.88272 -44.20602 35919 ft 403 kts 249°
2026-05-05 05:04 45.86117 -44.28022 35919 ft 402 kts 248°
2026-05-05 05:05 45.83973 -44.35396 35920 ft 404 kts 248°
2026-05-05 05:05 45.81805 -44.42846 35909 ft 407 kts 248°
2026-05-05 05:06 45.79601 -44.50336 35909 ft 408 kts 249°
2026-05-05 05:06 45.77419 -44.57830 35905 ft 407 kts 249°
2026-05-05 05:07 45.75229 -44.65276 35907 ft 406 kts 248°
2026-05-05 05:07 45.73008 -44.72709 35906 ft 405 kts 248°
2026-05-05 05:08 45.70812 -44.80131 35903 ft 404 kts 249°
2026-05-05 05:08 45.68645 -44.87470 35902 ft 403 kts 248°
2026-05-05 05:09 45.66452 -44.94845 35898 ft 402 kts 248°
2026-05-05 05:09 45.64253 -45.02188 35899 ft 401 kts 248°
2026-05-05 05:10 45.62056 -45.09524 35901 ft 402 kts 248°
2026-05-05 05:10 45.59853 -45.16858 35897 ft 401 kts 248°
2026-05-05 05:11 45.57646 -45.24172 35897 ft 401 kts 248°
2026-05-05 05:11 45.55435 -45.31473 35896 ft 400 kts 248°
2026-05-05 05:12 45.53225 -45.38766 35892 ft 401 kts 248°
2026-05-05 05:12 45.51023 -45.46024 35888 ft 401 kts 248°
2026-05-05 05:13 45.48801 -45.53310 35884 ft 401 kts 248°
2026-05-05 05:13 45.46560 -45.60582 35884 ft 400 kts 248°
2026-05-05 05:14 45.44332 -45.67836 35886 ft 399 kts 248°
2026-05-05 05:14 45.42155 -45.75118 35892 ft 400 kts 248°
2026-05-05 05:15 45.39912 -45.82367 35883 ft 400 kts 248°
2026-05-05 05:15 45.38030 -45.88369 35885 ft 399 kts 248°
2026-05-05 05:16 45.35771 -45.95586 35886 ft 400 kts 248°
2026-05-05 05:16 45.33516 -46.02837 35882 ft 401 kts 248°
2026-05-05 05:17 45.31264 -46.10071 35888 ft 400 kts 248°
2026-05-05 05:17 45.29045 -46.17172 35882 ft 399 kts 248°
2026-05-05 05:18 45.26782 -46.24377 35884 ft 399 kts 248°
2026-05-05 05:18 45.24521 -46.31575 35870 ft 399 kts 248°
2026-05-05 05:19 45.22253 -46.38756 35885 ft 399 kts 247°
2026-05-05 05:19 45.19982 -46.45936 35882 ft 399 kts 247°
2026-05-05 05:20 45.17726 -46.53061 35880 ft 399 kts 247°
2026-05-05 05:20 45.15441 -46.60243 35867 ft 399 kts 247°
2026-05-05 05:21 45.13149 -46.67414 35863 ft 399 kts 247°
2026-05-05 05:21 45.10856 -46.74586 35874 ft 400 kts 247°
2026-05-05 05:22 45.08558 -46.81769 35881 ft 401 kts 247°
2026-05-05 05:22 45.06247 -46.88947 35871 ft 400 kts 247°
2026-05-05 05:23 45.03943 -46.96097 35861 ft 400 kts 247°
2026-05-05 05:23 45.01651 -47.03193 35865 ft 400 kts 247°
2026-05-05 05:24 44.99340 -47.10318 35873 ft 399 kts 246°
2026-05-05 05:24 44.97021 -47.17444 35861 ft 399 kts 246°
2026-05-05 05:25 44.94703 -47.24556 35881 ft 399 kts 246°
2026-05-05 05:25 44.92379 -47.31671 35864 ft 399 kts 246°
2026-05-05 05:26 44.90048 -47.38786 35862 ft 400 kts 246°
2026-05-05 05:26 44.87710 -47.45902 35860 ft 399 kts 246°
2026-05-05 05:27 44.85386 -47.52950 35867 ft 399 kts 246°
2026-05-05 05:27 44.81874 -47.63576 35862 ft 398 kts 246°
2026-05-05 05:28 44.79532 -47.70631 35854 ft 397 kts 246°
2026-05-05 05:28 44.77183 -47.77694 35864 ft 397 kts 246°
2026-05-05 05:29 44.74852 -47.84678 35861 ft 397 kts 246°
2026-05-05 05:29 44.72505 -47.91719 35861 ft 397 kts 245°
2026-05-05 05:30 44.70141 -47.98758 35864 ft 397 kts 245°
2026-05-05 05:30 44.67782 -48.05772 35860 ft 397 kts 245°
2026-05-05 05:31 44.65426 -48.12768 35861 ft 396 kts 245°
2026-05-05 05:31 44.63079 -48.19715 35862 ft 395 kts 245°
2026-05-05 05:32 44.60717 -48.26682 35859 ft 395 kts 245°
2026-05-05 05:32 44.58352 -48.33644 35856 ft 396 kts 245°
2026-05-05 05:33 44.55978 -48.40617 35862 ft 396 kts 245°
2026-05-05 05:33 44.53601 -48.47590 35855 ft 396 kts 245°
2026-05-05 05:34 44.51217 -48.54550 35857 ft 396 kts 245°
2026-05-05 05:34 44.48873 -48.61368 35858 ft 396 kts 245°
2026-05-05 05:35 44.46456 -48.68392 35851 ft 396 kts 245°
2026-05-05 05:35 44.44060 -48.75342 35843 ft 396 kts 245°
2026-05-05 05:36 44.41672 -48.82246 35841 ft 396 kts 245°
2026-05-05 05:36 44.39268 -48.89175 35842 ft 396 kts 245°
2026-05-05 05:37 44.36856 -48.96110 35843 ft 396 kts 245°
2026-05-05 05:37 44.34439 -49.03043 35842 ft 396 kts 245°
2026-05-05 05:38 44.32029 -49.09948 35842 ft 396 kts 245°
2026-05-05 05:38 44.29603 -49.16866 35848 ft 396 kts 245°
2026-05-05 05:39 44.27181 -49.23770 35842 ft 396 kts 245°
2026-05-05 05:39 44.24790 -49.30558 35838 ft 395 kts 245°
2026-05-05 05:40 44.22354 -49.37454 35833 ft 395 kts 245°
2026-05-05 05:40 44.19923 -49.44321 35831 ft 394 kts 245°
2026-05-05 05:41 44.17495 -49.51171 35833 ft 394 kts 245°
2026-05-05 05:41 44.15060 -49.58022 35834 ft 394 kts 245°
2026-05-05 05:42 44.12637 -49.64817 35832 ft 393 kts 245°
2026-05-05 05:42 44.10205 -49.71599 35825 ft 394 kts 245°
2026-05-05 05:43 44.07772 -49.78387 35843 ft 390 kts 246°
2026-05-05 05:43 44.05374 -49.85173 35846 ft 392 kts 244°
2026-05-05 05:44 44.02908 -49.91940 35850 ft 393 kts 244°
2026-05-05 05:44 44.00460 -49.98752 35841 ft 394 kts 246°
2026-05-05 05:45 43.98551 -50.05887 36088 ft 395 kts 252°
2026-05-05 05:45 43.97685 -50.09499 36431 ft 393 kts 251°
2026-05-05 05:45 43.96810 -50.13081 36780 ft 391 kts 251°
2026-05-05 05:46 43.95945 -50.16598 37234 ft 386 kts 251°
2026-05-05 05:46 43.95085 -50.20092 37752 ft 379 kts 252°
2026-05-05 05:46 43.93365 -50.27066 37845 ft 384 kts 252°
2026-05-05 05:47 43.91640 -50.34043 37832 ft 379 kts 252°
2026-05-05 05:47 43.89926 -50.40950 37845 ft 379 kts 252°
2026-05-05 05:48 43.88219 -50.47843 37843 ft 379 kts 252°
2026-05-05 05:48 43.86507 -50.54723 37844 ft 379 kts 251°
2026-05-05 05:49 43.84776 -50.61645 37844 ft 380 kts 251°
2026-05-05 05:49 43.83052 -50.68532 37844 ft 381 kts 251°
2026-05-05 05:50 43.81296 -50.75508 37842 ft 381 kts 251°
2026-05-05 05:50 43.79557 -50.82409 37841 ft 382 kts 251°
2026-05-05 05:51 43.77799 -50.89357 37845 ft 382 kts 251°
2026-05-05 05:51 43.76037 -50.96310 37842 ft 382 kts 251°
2026-05-05 05:52 43.74274 -51.03244 37843 ft 382 kts 251°
2026-05-05 05:52 43.72508 -51.10156 37841 ft 381 kts 251°
2026-05-05 05:53 43.70738 -51.17073 37843 ft 382 kts 251°
2026-05-05 05:53 43.68964 -51.23991 37839 ft 382 kts 251°
2026-05-05 05:54 43.67198 -51.30861 37843 ft 381 kts 250°
2026-05-05 05:54 43.65416 -51.37761 37842 ft 381 kts 250°
2026-05-05 05:55 43.63633 -51.44655 37843 ft 381 kts 250°
2026-05-05 05:55 43.61847 -51.51535 37843 ft 381 kts 250°
2026-05-05 05:56 43.60052 -51.58426 37843 ft 381 kts 250°
2026-05-05 05:56 43.58264 -51.65282 37843 ft 381 kts 250°
2026-05-05 05:57 43.56461 -51.72163 37845 ft 381 kts 250°
2026-05-05 05:57 43.54669 -51.78978 37843 ft 380 kts 250°
2026-05-05 05:58 43.52864 -51.85841 37844 ft 381 kts 250°
2026-05-05 05:58 43.51052 -51.92712 37842 ft 381 kts 250°
2026-05-05 05:59 43.49234 -51.99569 37841 ft 381 kts 250°
2026-05-05 05:59 43.47407 -52.06431 37841 ft 381 kts 250°
2026-05-05 06:00 43.45578 -52.13282 37841 ft 382 kts 250°
2026-05-05 06:00 43.43751 -52.20142 37843 ft 382 kts 250°
2026-05-05 06:01 43.41926 -52.26954 37842 ft 381 kts 250°
2026-05-05 06:01 43.40089 -52.33804 37843 ft 382 kts 250°
2026-05-05 06:02 43.38240 -52.40648 37843 ft 382 kts 250°
2026-05-05 06:02 43.36387 -52.47511 37843 ft 383 kts 250°
2026-05-05 06:03 43.34525 -52.54378 37843 ft 383 kts 250°
2026-05-05 06:03 43.32664 -52.61230 37844 ft 383 kts 249°
2026-05-05 06:04 43.30805 -52.68054 37842 ft 384 kts 249°
2026-05-05 06:04 43.28929 -52.74916 37842 ft 384 kts 249°
2026-05-05 06:05 43.27045 -52.81796 37811 ft 385 kts 249°
2026-05-05 06:05 43.25474 -52.87517 37805 ft 385 kts 249°
2026-05-05 06:06 43.23576 -52.94396 37804 ft 385 kts 249°
2026-05-05 06:06 43.21679 -53.01275 37806 ft 386 kts 249°
2026-05-05 06:07 43.19772 -53.08164 37805 ft 387 kts 248°
2026-05-05 06:07 43.17857 -53.15054 37806 ft 388 kts 249°
2026-05-05 06:08 43.15966 -53.21841 37807 ft 388 kts 248°
2026-05-05 06:08 43.14026 -53.28785 37805 ft 389 kts 248°
2026-05-05 06:09 43.12106 -53.35652 37805 ft 389 kts 248°
2026-05-05 06:09 43.10171 -53.42536 37803 ft 390 kts 248°
2026-05-05 06:10 43.08208 -53.49501 37809 ft 390 kts 248°
2026-05-05 06:10 43.06246 -53.56443 37806 ft 390 kts 248°
2026-05-05 06:11 43.04290 -53.63360 37805 ft 390 kts 248°
2026-05-05 06:11 43.02338 -53.70234 37813 ft 390 kts 248°
2026-05-05 06:12 43.00372 -53.77134 37804 ft 389 kts 248°
2026-05-05 06:12 42.98402 -53.84026 37808 ft 390 kts 248°
2026-05-05 06:13 42.96432 -53.90918 37805 ft 389 kts 248°
2026-05-05 06:13 42.94475 -53.97736 37828 ft 388 kts 248°
2026-05-05 06:14 42.92499 -54.04598 37828 ft 387 kts 248°
2026-05-05 06:14 42.90525 -54.11438 37836 ft 388 kts 248°
2026-05-05 06:15 42.88546 -54.18275 37833 ft 390 kts 248°
2026-05-05 06:15 42.86549 -54.25162 37837 ft 391 kts 248°
2026-05-05 06:16 42.84541 -54.32059 37832 ft 391 kts 248°
2026-05-05 06:16 42.82528 -54.38955 37831 ft 391 kts 248°
2026-05-05 06:17 42.80530 -54.45777 37832 ft 390 kts 247°
2026-05-05 06:17 42.78528 -54.52610 37833 ft 389 kts 247°
2026-05-05 06:18 42.76505 -54.59479 37833 ft 389 kts 247°
2026-05-05 06:18 42.74491 -54.66310 37832 ft 389 kts 247°
2026-05-05 06:19 42.72473 -54.73137 37834 ft 389 kts 247°
2026-05-05 06:19 42.70458 -54.79927 37833 ft 388 kts 247°
2026-05-05 06:20 42.68433 -54.86741 37834 ft 388 kts 247°
2026-05-05 06:20 42.66406 -54.93547 37835 ft 388 kts 247°
2026-05-05 06:21 42.64452 -55.00081 37833 ft 388 kts 247°
2026-05-05 06:21 42.62347 -55.07104 37835 ft 388 kts 247°
2026-05-05 06:22 42.60309 -55.13884 37842 ft 388 kts 247°
2026-05-05 06:22 42.58279 -55.20624 37844 ft 388 kts 247°
2026-05-05 06:23 42.56233 -55.27400 37842 ft 388 kts 246°
2026-05-05 06:23 42.54187 -55.34156 37842 ft 387 kts 246°
2026-05-05 06:24 42.52139 -55.40902 37842 ft 386 kts 246°
2026-05-05 06:24 42.50093 -55.47629 37844 ft 386 kts 246°
2026-05-05 06:25 42.48067 -55.54268 37841 ft 385 kts 246°
2026-05-05 06:25 42.46005 -55.61011 37842 ft 384 kts 246°
2026-05-05 06:26 42.43965 -55.67651 37843 ft 383 kts 246°
2026-05-05 06:26 42.41921 -55.74303 37844 ft 382 kts 246°
2026-05-05 06:27 42.38862 -55.84223 37844 ft 381 kts 246°
2026-05-05 06:28 42.36818 -55.90825 37841 ft 380 kts 246°
2026-05-05 06:28 42.34778 -55.97399 37895 ft 378 kts 246°
2026-05-05 06:29 42.32741 -56.03953 37966 ft 377 kts 246°
2026-05-05 06:29 42.30696 -56.10515 37982 ft 380 kts 246°
2026-05-05 06:30 42.28647 -56.17076 37977 ft 382 kts 246°
2026-05-05 06:30 42.26569 -56.23699 37952 ft 384 kts 245°
2026-05-05 06:31 42.24489 -56.30328 37960 ft 383 kts 245°
2026-05-05 06:31 42.22404 -56.36943 37947 ft 383 kts 245°
2026-05-05 06:32 42.20321 -56.43542 37950 ft 382 kts 245°
2026-05-05 06:32 42.18239 -56.50127 37952 ft 382 kts 245°
2026-05-05 06:33 42.16144 -56.56729 37973 ft 383 kts 245°
2026-05-05 06:33 42.14041 -56.63343 37957 ft 385 kts 245°
2026-05-05 06:34 42.11937 -56.69939 37965 ft 386 kts 245°
2026-05-05 06:34 42.09805 -56.76610 37971 ft 389 kts 245°
2026-05-05 06:35 42.07654 -56.83327 37970 ft 391 kts 245°
2026-05-05 06:35 42.05493 -56.90060 37963 ft 392 kts 245°
2026-05-05 06:36 42.03317 -56.96815 37960 ft 394 kts 245°
2026-05-05 06:36 42.01131 -57.03582 37958 ft 394 kts 245°
2026-05-05 06:37 41.98940 -57.10354 37972 ft 395 kts 245°
2026-05-05 06:37 41.96756 -57.17093 37949 ft 392 kts 245°
2026-05-05 06:38 41.94576 -57.23796 37958 ft 390 kts 245°
2026-05-05 06:38 41.92425 -57.30393 37964 ft 389 kts 245°
2026-05-05 06:39 41.90251 -57.37053 37968 ft 389 kts 245°
2026-05-05 06:39 41.88065 -57.43725 37963 ft 391 kts 245°
2026-05-05 06:40 41.85859 -57.50432 37979 ft 394 kts 245°
2026-05-05 06:40 41.83638 -57.57183 37966 ft 396 kts 245°
2026-05-05 06:41 41.81418 -57.63908 37978 ft 398 kts 245°
2026-05-05 06:41 41.79170 -57.70695 37977 ft 399 kts 245°
2026-05-05 06:42 41.76917 -57.77491 37977 ft 398 kts 245°
2026-05-05 06:42 41.74664 -57.84272 37979 ft 398 kts 245°
2026-05-05 06:43 41.72414 -57.91027 37980 ft 398 kts 245°
2026-05-05 06:43 41.70156 -57.97786 37977 ft 398 kts 245°
2026-05-05 06:44 41.67890 -58.04544 37958 ft 397 kts 245°
2026-05-05 06:44 41.65626 -58.11289 37965 ft 397 kts 245°
2026-05-05 06:45 41.63355 -58.18035 37978 ft 398 kts 245°
2026-05-05 06:45 41.61098 -58.24730 37979 ft 398 kts 245°
2026-05-05 06:46 41.58820 -58.31461 37962 ft 397 kts 245°
2026-05-05 06:46 41.56540 -58.38186 37984 ft 397 kts 245°
2026-05-05 06:47 41.54257 -58.44899 37983 ft 397 kts 245°
2026-05-05 06:47 41.51978 -58.51596 37980 ft 397 kts 244°
2026-05-05 06:48 41.49687 -58.58294 37983 ft 398 kts 244°
2026-05-05 06:48 41.47388 -58.65006 37983 ft 397 kts 244°
2026-05-05 06:49 41.45101 -58.71672 37980 ft 397 kts 244°
2026-05-05 06:49 41.42815 -58.78325 37981 ft 397 kts 244°
2026-05-05 06:50 41.40510 -58.85009 37981 ft 397 kts 244°
2026-05-05 06:50 41.38204 -58.91680 37979 ft 397 kts 244°
2026-05-05 06:51 41.35892 -58.98357 37984 ft 397 kts 244°
2026-05-05 06:51 41.33572 -59.05043 37980 ft 397 kts 244°
2026-05-05 06:52 41.31640 -59.10595 37981 ft 398 kts 244°
2026-05-05 06:52 41.29327 -59.17224 37982 ft 398 kts 244°
2026-05-05 06:53 41.26629 -59.24937 37981 ft 398 kts 244°
2026-05-05 06:53 41.24661 -59.30551 37983 ft 399 kts 244°
2026-05-05 06:54 41.22328 -59.37194 37982 ft 399 kts 244°
2026-05-05 06:54 41.19971 -59.43885 37983 ft 399 kts 244°
2026-05-05 06:55 41.17617 -59.50559 37980 ft 400 kts 244°
2026-05-05 06:55 41.15258 -59.57235 37981 ft 399 kts 244°
2026-05-05 06:56 41.12892 -59.63902 37980 ft 399 kts 244°
2026-05-05 06:56 41.10528 -59.70551 37981 ft 398 kts 244°
2026-05-05 06:57 41.08165 -59.77194 37982 ft 398 kts 243°
2026-05-05 06:57 41.05812 -59.83780 37981 ft 397 kts 243°
2026-05-05 06:58 41.03443 -59.90394 37984 ft 398 kts 243°
2026-05-05 06:58 41.01075 -59.97005 37981 ft 398 kts 243°
2026-05-05 06:59 40.98436 -60.03426 37980 ft 397 kts 238°
2026-05-05 06:59 40.95497 -60.09633 37987 ft 398 kts 238°
2026-05-05 07:00 40.92561 -60.15869 37985 ft 400 kts 238°
2026-05-05 07:00 40.89660 -60.22034 37984 ft 400 kts 238°
2026-05-05 07:01 40.86712 -60.28290 37981 ft 400 kts 238°
2026-05-05 07:01 40.83764 -60.34529 37978 ft 400 kts 238°
2026-05-05 07:02 40.80816 -60.40757 37959 ft 399 kts 237°
2026-05-05 07:02 40.77899 -60.46917 37964 ft 398 kts 237°
2026-05-05 07:03 40.74959 -60.53104 37963 ft 397 kts 237°
2026-05-05 07:03 40.72021 -60.59278 37966 ft 397 kts 237°
2026-05-05 07:04 40.69099 -60.65405 37964 ft 397 kts 237°
2026-05-05 07:04 40.66149 -60.71580 37961 ft 397 kts 237°
2026-05-05 07:05 40.63193 -60.77756 37974 ft 399 kts 237°
2026-05-05 07:05 40.60230 -60.83929 37961 ft 399 kts 237°
2026-05-05 07:06 40.57259 -60.90107 37955 ft 400 kts 237°
2026-05-05 07:06 40.54285 -60.96286 37970 ft 400 kts 237°
2026-05-05 07:07 40.51317 -61.02438 37955 ft 401 kts 237°
2026-05-05 07:07 40.48317 -61.08639 37962 ft 402 kts 237°
2026-05-05 07:08 40.45315 -61.14835 37960 ft 402 kts 237°
2026-05-05 07:08 40.42303 -61.21037 37958 ft 403 kts 237°
2026-05-05 07:09 40.39285 -61.27246 37962 ft 404 kts 237°
2026-05-05 07:09 40.36253 -61.33462 37973 ft 405 kts 237°
2026-05-05 07:10 40.33224 -61.39659 37964 ft 405 kts 237°
2026-05-05 07:10 40.30182 -61.45871 37962 ft 405 kts 237°
2026-05-05 07:11 40.27140 -61.52080 37961 ft 405 kts 237°
2026-05-05 07:11 40.24108 -61.58250 37965 ft 405 kts 237°
2026-05-05 07:12 40.21055 -61.64450 37957 ft 406 kts 237°
2026-05-05 07:12 40.17996 -61.70657 37954 ft 406 kts 237°
2026-05-05 07:13 40.14932 -61.76849 37957 ft 405 kts 237°
2026-05-05 07:13 40.11871 -61.83027 37977 ft 405 kts 237°
2026-05-05 07:14 40.08805 -61.89211 37964 ft 405 kts 237°
2026-05-05 07:14 40.05748 -61.95356 37976 ft 406 kts 237°
2026-05-05 07:15 40.02667 -62.01542 37978 ft 406 kts 237°
2026-05-05 07:15 39.99611 -62.07671 37978 ft 405 kts 237°
2026-05-05 07:16 39.96531 -62.13831 37977 ft 405 kts 237°
2026-05-05 07:16 39.93442 -62.19987 37978 ft 406 kts 237°
2026-05-05 07:17 39.90348 -62.26143 37979 ft 406 kts 237°
2026-05-05 07:17 39.87251 -62.32299 37982 ft 406 kts 237°
2026-05-05 07:18 39.84149 -62.38456 37962 ft 406 kts 237°
2026-05-05 07:18 39.81069 -62.44559 37960 ft 406 kts 237°
2026-05-05 07:19 39.77972 -62.50679 37958 ft 405 kts 237°
2026-05-05 07:19 39.74865 -62.56807 37978 ft 406 kts 237°
2026-05-05 07:20 39.71754 -62.62932 37979 ft 406 kts 236°
2026-05-05 07:20 39.68639 -62.69048 37963 ft 406 kts 236°
2026-05-05 07:21 39.65513 -62.75179 37964 ft 407 kts 236°
2026-05-05 07:21 39.62403 -62.81268 37960 ft 408 kts 236°
2026-05-05 07:22 39.59266 -62.87393 37958 ft 408 kts 237°
2026-05-05 07:22 39.56123 -62.93523 37977 ft 408 kts 236°
2026-05-05 07:23 39.53008 -62.99581 37970 ft 408 kts 236°
2026-05-05 07:23 39.49854 -63.05704 37983 ft 409 kts 236°
2026-05-05 07:24 39.46694 -63.11833 37982 ft 409 kts 236°
2026-05-05 07:24 39.43526 -63.17961 37984 ft 410 kts 236°
2026-05-05 07:25 39.40348 -63.24093 37981 ft 411 kts 236°
2026-05-05 07:25 39.37167 -63.30229 37982 ft 411 kts 236°
2026-05-05 07:26 39.33971 -63.36374 37991 ft 411 kts 236°
2026-05-05 07:26 39.30801 -63.42462 38012 ft 411 kts 236°
2026-05-05 07:27 39.27597 -63.48600 38019 ft 411 kts 236°
2026-05-05 07:27 39.24394 -63.54724 38005 ft 412 kts 236°
2026-05-05 07:28 39.21199 -63.60827 37949 ft 412 kts 236°
2026-05-05 07:28 39.17983 -63.66953 37943 ft 412 kts 236°
2026-05-05 07:29 39.14770 -63.73056 37950 ft 411 kts 236°
2026-05-05 07:29 39.11563 -63.79146 37952 ft 411 kts 236°
2026-05-05 07:30 39.08378 -63.85181 37954 ft 410 kts 236°
2026-05-05 07:30 39.03552 -63.94298 37956 ft 410 kts 236°
2026-05-05 07:31 39.00331 -64.00374 37959 ft 410 kts 236°
2026-05-05 07:31 38.97130 -64.06397 37950 ft 411 kts 236°
2026-05-05 07:32 38.93904 -64.12457 37955 ft 412 kts 236°
2026-05-05 07:32 38.90632 -64.18587 37952 ft 413 kts 236°
2026-05-05 07:33 38.87398 -64.24644 37947 ft 414 kts 236°
2026-05-05 07:33 38.84136 -64.30734 37963 ft 414 kts 236°
2026-05-05 07:34 38.80872 -64.36822 37954 ft 414 kts 236°
2026-05-05 07:34 38.77608 -64.42899 37962 ft 413 kts 236°
2026-05-05 07:35 38.74345 -64.48955 37961 ft 412 kts 235°
2026-05-05 07:35 38.71088 -64.54993 37973 ft 412 kts 235°
2026-05-05 07:36 38.67848 -64.60987 37976 ft 412 kts 235°
2026-05-05 07:36 38.64584 -64.67013 37960 ft 412 kts 235°
2026-05-05 07:37 38.61319 -64.73032 37977 ft 412 kts 236°
2026-05-05 07:37 38.58053 -64.79044 37980 ft 412 kts 235°
2026-05-05 07:38 38.54773 -64.85069 37978 ft 413 kts 235°
2026-05-05 07:38 38.51484 -64.91094 37964 ft 414 kts 235°
2026-05-05 07:39 38.48182 -64.97131 37962 ft 414 kts 235°
2026-05-05 07:39 38.44899 -65.03131 37977 ft 415 kts 235°
2026-05-05 07:40 38.42127 -65.08194 37980 ft 415 kts 235°
2026-05-05 07:40 38.38812 -65.14225 37983 ft 415 kts 235°
2026-05-05 07:41 38.35515 -65.20214 37980 ft 415 kts 235°
2026-05-05 07:41 38.32212 -65.26200 37981 ft 415 kts 235°
2026-05-05 07:42 38.28898 -65.32200 37984 ft 415 kts 235°
2026-05-05 07:42 38.25580 -65.38199 37995 ft 414 kts 235°
2026-05-05 07:43 38.22259 -65.44187 38000 ft 414 kts 235°
2026-05-05 07:43 38.18929 -65.50183 38001 ft 415 kts 235°
2026-05-05 07:44 38.15594 -65.56175 38002 ft 415 kts 235°
2026-05-05 07:44 38.12255 -65.62167 38000 ft 415 kts 235°
2026-05-05 07:45 38.08913 -65.68151 38004 ft 415 kts 235°
2026-05-05 07:45 38.05568 -65.74126 38006 ft 415 kts 235°
2026-05-05 07:46 38.02241 -65.80063 38014 ft 415 kts 235°
2026-05-05 07:46 37.98891 -65.86024 38019 ft 415 kts 235°
2026-05-05 07:47 37.95538 -65.91979 38017 ft 415 kts 235°
2026-05-05 07:47 37.92187 -65.97935 38019 ft 415 kts 235°
2026-05-05 07:48 37.88834 -66.03875 38024 ft 414 kts 235°
2026-05-05 07:48 37.85491 -66.09788 38034 ft 414 kts 235°
2026-05-05 07:49 37.82140 -66.15695 38032 ft 415 kts 235°
2026-05-05 07:49 37.78767 -66.21635 38037 ft 415 kts 235°
2026-05-05 07:50 37.75421 -66.27522 38039 ft 415 kts 235°
2026-05-05 07:50 37.72069 -66.33408 38035 ft 415 kts 235°
2026-05-05 07:51 37.68689 -66.39327 38038 ft 415 kts 235°
2026-05-05 07:51 37.65311 -66.45235 38036 ft 415 kts 235°
2026-05-05 07:52 37.61929 -66.51137 38037 ft 415 kts 235°
2026-05-05 07:52 37.58542 -66.57039 38036 ft 415 kts 235°
2026-05-05 07:53 37.55157 -66.62936 38038 ft 415 kts 235°
2026-05-05 07:53 37.51764 -66.68829 38036 ft 415 kts 235°
2026-05-05 07:54 37.48370 -66.74712 38038 ft 415 kts 235°
2026-05-05 07:54 37.44992 -66.80558 38036 ft 415 kts 235°
2026-05-05 07:55 37.41589 -66.86434 38038 ft 415 kts 234°
2026-05-05 07:55 37.38178 -66.92310 38037 ft 416 kts 234°
2026-05-05 07:56 37.34771 -66.98181 38037 ft 415 kts 234°
2026-05-05 07:56 37.31366 -67.04034 38036 ft 415 kts 234°
2026-05-05 07:57 37.27965 -67.09870 38039 ft 415 kts 234°
2026-05-05 07:57 37.24540 -67.15738 38037 ft 415 kts 234°
2026-05-05 07:58 37.21117 -67.21586 38038 ft 416 kts 234°
2026-05-05 07:58 37.17695 -67.27426 38037 ft 416 kts 234°
2026-05-05 07:59 37.14260 -67.33278 38045 ft 417 kts 234°
2026-05-05 07:59 37.10818 -67.39125 38045 ft 417 kts 234°
2026-05-05 08:00 37.07381 -67.44964 38046 ft 417 kts 234°
2026-05-05 08:00 37.03956 -67.50768 38046 ft 417 kts 234°
2026-05-05 08:01 37.00508 -67.56602 38046 ft 416 kts 234°
2026-05-05 08:01 36.97075 -67.62400 38047 ft 416 kts 234°
2026-05-05 08:02 36.93626 -67.68211 38047 ft 416 kts 234°
2026-05-05 08:02 36.90180 -67.74015 38044 ft 415 kts 234°
2026-05-05 08:03 36.86730 -67.79814 38048 ft 415 kts 234°
2026-05-05 08:03 36.83280 -67.85599 38047 ft 416 kts 234°
2026-05-05 08:04 36.79821 -67.91387 38046 ft 416 kts 234°
2026-05-05 08:04 36.76356 -67.97180 38047 ft 415 kts 234°
2026-05-05 08:05 36.72942 -68.02878 38043 ft 416 kts 234°
2026-05-05 08:05 36.69475 -68.08657 38047 ft 416 kts 234°
2026-05-05 08:06 36.66006 -68.14424 38047 ft 416 kts 234°
2026-05-05 08:06 36.62563 -68.20140 38048 ft 417 kts 234°
2026-05-05 08:07 36.59079 -68.25920 38046 ft 417 kts 234°
2026-05-05 08:07 36.55647 -68.31585 38114 ft 419 kts 234°
2026-05-05 08:08 36.53865 -68.34505 38379 ft 419 kts 234°
2026-05-05 08:08 36.52105 -68.37383 38704 ft 417 kts 234°
2026-05-05 08:08 36.50343 -68.40264 38998 ft 416 kts 234°
2026-05-05 08:08 36.48591 -68.43128 39258 ft 416 kts 234°
2026-05-05 08:09 36.46837 -68.45994 39435 ft 417 kts 234°
2026-05-05 08:09 36.45079 -68.48868 39617 ft 418 kts 234°
2026-05-05 08:09 36.43315 -68.51748 39796 ft 419 kts 234°
2026-05-05 08:09 36.41549 -68.54631 39958 ft 420 kts 233°
2026-05-05 08:10 36.38004 -68.60407 40007 ft 422 kts 233°
2026-05-05 08:10 36.34451 -68.66182 40052 ft 420 kts 233°
2026-05-05 08:11 36.30908 -68.71935 40052 ft 419 kts 233°
2026-05-05 08:11 36.27384 -68.77647 40054 ft 419 kts 233°
2026-05-05 08:12 36.23841 -68.83381 40054 ft 419 kts 233°
2026-05-05 08:12 36.20318 -68.89072 40061 ft 420 kts 233°
2026-05-05 08:13 36.16758 -68.94814 40066 ft 421 kts 233°
2026-05-05 08:13 36.13191 -69.00557 40066 ft 422 kts 233°
2026-05-05 08:14 36.09614 -69.06308 40056 ft 422 kts 233°
2026-05-05 08:14 36.06025 -69.12067 40067 ft 423 kts 233°
2026-05-05 08:15 36.02449 -69.17794 40053 ft 423 kts 233°
2026-05-05 08:15 35.98850 -69.23551 40059 ft 423 kts 233°
2026-05-05 08:16 35.95253 -69.29293 40064 ft 422 kts 233°
2026-05-05 08:16 35.91665 -69.35013 40047 ft 420 kts 233°
2026-05-05 08:17 35.88108 -69.40674 40051 ft 419 kts 233°
2026-05-05 08:17 35.84535 -69.46349 40063 ft 419 kts 233°
2026-05-05 08:18 35.80960 -69.52021 40054 ft 418 kts 233°
2026-05-05 08:18 35.77405 -69.57650 40060 ft 419 kts 233°
2026-05-05 08:19 35.73812 -69.63330 40057 ft 421 kts 233°
2026-05-05 08:19 35.70215 -69.69007 40076 ft 421 kts 233°
2026-05-05 08:20 35.66606 -69.74695 40057 ft 422 kts 233°
2026-05-05 08:20 35.62980 -69.80398 40060 ft 423 kts 233°
2026-05-05 08:21 35.59359 -69.86085 40061 ft 423 kts 233°
2026-05-05 08:21 35.55754 -69.91738 40064 ft 422 kts 233°
2026-05-05 08:22 35.52124 -69.97420 40061 ft 422 kts 233°
2026-05-05 08:22 35.48507 -70.03073 40084 ft 421 kts 233°
2026-05-05 08:23 35.44888 -70.08720 40084 ft 421 kts 233°
2026-05-05 08:23 35.41268 -70.14360 40092 ft 420 kts 233°
2026-05-05 08:24 35.37648 -70.19990 40093 ft 420 kts 233°
2026-05-05 08:24 35.34023 -70.25618 40092 ft 420 kts 233°
2026-05-05 08:25 35.30420 -70.31203 40093 ft 420 kts 233°
2026-05-05 08:25 35.26776 -70.36844 40093 ft 420 kts 233°
2026-05-05 08:26 35.23171 -70.42415 40092 ft 420 kts 232°
2026-05-05 08:26 35.19548 -70.48005 40092 ft 419 kts 232°
2026-05-05 08:27 35.15945 -70.53554 40092 ft 419 kts 232°
2026-05-05 08:27 35.12931 -70.58189 40092 ft 418 kts 232°
2026-05-05 08:28 35.09309 -70.63753 40092 ft 418 kts 232°
2026-05-05 08:28 35.05685 -70.69310 40092 ft 418 kts 232°
2026-05-05 08:29 35.02064 -70.74854 40094 ft 418 kts 232°
2026-05-05 08:30 34.96624 -70.83167 40092 ft 418 kts 232°
2026-05-05 08:30 34.92995 -70.88701 40093 ft 417 kts 232°
2026-05-05 08:31 34.89367 -70.94225 40092 ft 417 kts 232°
2026-05-05 08:31 34.85734 -70.99748 40093 ft 417 kts 232°
2026-05-05 08:32 34.82105 -71.05257 40101 ft 417 kts 232°
2026-05-05 08:32 34.78527 -71.10680 40100 ft 417 kts 232°
2026-05-05 08:33 34.74895 -71.16177 40093 ft 417 kts 232°
2026-05-05 08:33 34.71265 -71.21663 40091 ft 416 kts 232°
2026-05-05 08:34 34.67627 -71.27152 40093 ft 416 kts 232°
2026-05-05 08:34 34.63988 -71.32626 40092 ft 416 kts 232°
2026-05-05 08:35 34.60362 -71.38070 40093 ft 415 kts 232°
2026-05-05 08:35 34.56725 -71.43524 40093 ft 415 kts 232°
2026-05-05 08:36 34.53090 -71.48968 40093 ft 415 kts 232°
2026-05-05 08:36 34.49530 -71.54293 40093 ft 414 kts 232°
2026-05-05 08:37 34.45897 -71.59718 40092 ft 414 kts 232°
2026-05-05 08:37 34.42268 -71.65129 40091 ft 414 kts 232°
2026-05-05 08:38 34.38630 -71.70545 40093 ft 413 kts 232°
2026-05-05 08:38 34.35002 -71.75939 40092 ft 413 kts 232°
2026-05-05 08:39 34.31372 -71.81326 40093 ft 412 kts 232°
2026-05-05 08:39 34.27748 -71.86698 40092 ft 412 kts 232°
2026-05-05 08:40 34.24118 -71.92069 40092 ft 412 kts 232°
2026-05-05 08:40 34.20512 -71.97399 40093 ft 412 kts 232°
2026-05-05 08:41 34.16886 -72.02748 40092 ft 412 kts 232°
2026-05-05 08:41 34.13258 -72.08094 40092 ft 412 kts 232°
2026-05-05 08:42 34.09619 -72.13448 40093 ft 412 kts 232°
2026-05-05 08:42 34.05980 -72.18792 40093 ft 412 kts 232°
2026-05-05 08:43 34.02364 -72.24099 40093 ft 412 kts 232°
2026-05-05 08:43 33.98721 -72.29435 40092 ft 412 kts 232°
2026-05-05 08:44 33.95105 -72.34799 40091 ft 412 kts 232°
2026-05-05 08:44 33.91517 -72.40194 40093 ft 412 kts 232°
2026-05-05 08:45 33.87925 -72.45586 40091 ft 413 kts 232°
2026-05-05 08:45 33.84326 -72.50972 40096 ft 413 kts 232°
2026-05-05 08:46 33.80741 -72.56323 40100 ft 413 kts 232°
2026-05-05 08:46 33.77131 -72.61703 40092 ft 414 kts 232°
2026-05-05 08:47 33.73508 -72.67095 40093 ft 414 kts 232°
2026-05-05 08:47 33.69883 -72.72482 40092 ft 415 kts 232°
2026-05-05 08:48 33.66251 -72.77871 40092 ft 415 kts 232°
2026-05-05 08:48 33.62618 -72.83254 40099 ft 415 kts 232°
2026-05-05 08:49 33.58972 -72.88648 40103 ft 416 kts 232°
2026-05-05 08:49 33.55342 -72.94009 40093 ft 416 kts 232°
2026-05-05 08:50 33.51688 -72.99400 40092 ft 417 kts 232°
2026-05-05 08:50 33.48037 -73.04776 40092 ft 417 kts 232°
2026-05-05 08:51 33.44373 -73.10166 40094 ft 417 kts 232°
2026-05-05 08:51 33.40695 -73.15568 40093 ft 418 kts 232°
2026-05-05 08:52 33.37022 -73.20953 40092 ft 418 kts 232°
2026-05-05 08:52 33.33366 -73.26306 40092 ft 418 kts 232°
2026-05-05 08:53 33.29660 -73.31727 40091 ft 418 kts 232°
2026-05-05 08:53 33.25995 -73.37079 40093 ft 418 kts 232°
2026-05-05 08:54 33.22305 -73.42457 40092 ft 418 kts 232°
2026-05-05 08:54 33.18618 -73.47821 40092 ft 418 kts 232°
2026-05-05 08:55 33.14924 -73.53190 40093 ft 418 kts 232°
2026-05-05 08:55 33.11227 -73.58557 40091 ft 418 kts 232°
2026-05-05 08:56 33.07548 -73.63890 40093 ft 418 kts 232°
2026-05-05 08:56 33.03870 -73.69216 40093 ft 418 kts 231°
2026-05-05 08:57 33.00162 -73.74576 40092 ft 418 kts 231°
2026-05-05 08:57 32.96459 -73.79921 40092 ft 418 kts 231°
2026-05-05 08:58 32.92753 -73.85262 40093 ft 418 kts 231°
2026-05-05 08:58 32.89046 -73.90597 40092 ft 418 kts 231°
2026-05-05 08:59 32.85337 -73.95929 40093 ft 418 kts 231°
2026-05-05 08:59 32.81654 -74.01214 40093 ft 418 kts 231°
2026-05-05 09:00 32.77939 -74.06539 40089 ft 418 kts 231°
2026-05-05 09:00 32.74227 -74.11851 40095 ft 419 kts 231°
2026-05-05 09:01 32.70504 -74.17170 40093 ft 419 kts 231°
2026-05-05 09:01 32.66771 -74.22496 40093 ft 419 kts 231°
2026-05-05 09:02 32.63039 -74.27815 40088 ft 420 kts 231°
2026-05-05 09:02 32.59303 -74.33130 40083 ft 420 kts 231°
2026-05-05 09:03 32.55557 -74.38452 40084 ft 419 kts 231°
2026-05-05 09:03 32.51841 -74.43725 40082 ft 419 kts 231°
2026-05-05 09:04 32.48102 -74.49022 40081 ft 420 kts 231°
2026-05-05 09:04 32.44341 -74.54342 40100 ft 422 kts 231°
2026-05-05 09:05 32.40553 -74.59693 40101 ft 425 kts 231°
2026-05-05 09:05 32.36738 -74.65076 40098 ft 427 kts 231°
2026-05-05 09:06 32.32907 -74.70472 40089 ft 428 kts 231°
2026-05-05 09:06 32.29145 -74.75763 40081 ft 428 kts 231°
2026-05-05 09:07 32.25301 -74.81161 40064 ft 428 kts 231°
2026-05-05 09:07 32.21475 -74.86528 40077 ft 427 kts 231°
2026-05-05 09:08 32.17661 -74.91870 40081 ft 426 kts 231°
2026-05-05 09:08 32.13841 -74.97212 40083 ft 426 kts 231°
2026-05-05 09:09 32.10041 -75.02520 40084 ft 426 kts 231°
2026-05-05 09:09 32.06207 -75.07867 40084 ft 427 kts 231°
2026-05-05 09:10 32.02368 -75.13213 40084 ft 427 kts 231°
2026-05-05 09:10 31.98542 -75.18533 40085 ft 428 kts 231°
2026-05-05 09:11 31.94692 -75.23880 40083 ft 429 kts 231°
2026-05-05 09:11 31.90834 -75.29230 40084 ft 429 kts 231°
2026-05-05 09:12 31.86991 -75.34551 40083 ft 429 kts 231°
2026-05-05 09:12 31.83119 -75.39907 40084 ft 430 kts 231°
2026-05-05 09:13 31.79239 -75.45263 40084 ft 430 kts 231°
2026-05-05 09:13 31.75387 -75.50575 40083 ft 430 kts 231°
2026-05-05 09:14 31.71534 -75.55880 40083 ft 430 kts 231°
2026-05-05 09:14 31.68270 -75.60368 40083 ft 430 kts 231°
2026-05-05 09:15 31.64377 -75.65716 40085 ft 430 kts 231°
2026-05-05 09:15 31.60505 -75.71026 40100 ft 430 kts 231°
2026-05-05 09:16 31.56610 -75.76361 40102 ft 430 kts 231°
2026-05-05 09:16 31.52715 -75.81687 40102 ft 430 kts 231°
2026-05-05 09:17 31.48811 -75.87018 40095 ft 431 kts 231°
2026-05-05 09:17 31.44907 -75.92342 40092 ft 431 kts 231°
2026-05-05 09:18 31.41000 -75.97663 40092 ft 431 kts 231°
2026-05-05 09:18 31.37113 -76.02950 40090 ft 431 kts 231°
2026-05-05 09:19 31.33200 -76.08264 40088 ft 431 kts 231°
2026-05-05 09:19 31.29281 -76.13580 40083 ft 431 kts 231°
2026-05-05 09:20 31.25379 -76.18865 40084 ft 431 kts 231°
2026-05-05 09:20 31.21453 -76.24174 40083 ft 432 kts 231°
2026-05-05 09:21 31.17532 -76.29469 40082 ft 432 kts 231°
2026-05-05 09:21 31.13594 -76.34781 40057 ft 432 kts 231°
2026-05-05 09:22 31.09683 -76.40049 40076 ft 432 kts 231°
2026-05-05 09:22 31.05741 -76.45351 40077 ft 432 kts 231°
2026-05-05 09:23 31.01797 -76.50649 40077 ft 432 kts 231°
2026-05-05 09:23 30.97851 -76.55942 40067 ft 432 kts 231°
2026-05-05 09:24 30.93899 -76.61235 40076 ft 432 kts 231°
2026-05-05 09:24 30.89948 -76.66520 40076 ft 432 kts 231°
2026-05-05 09:25 30.86025 -76.71761 40078 ft 432 kts 231°
2026-05-05 09:25 30.82065 -76.77044 40076 ft 432 kts 231°
2026-05-05 09:26 30.78110 -76.82315 40067 ft 433 kts 231°
2026-05-05 09:26 30.74148 -76.87587 40063 ft 433 kts 231°
2026-05-05 09:27 30.70182 -76.92858 40056 ft 433 kts 231°
2026-05-05 09:27 30.66361 -76.98210 40078 ft 431 kts 238°
2026-05-05 09:28 30.63456 -77.04220 40061 ft 429 kts 248°
2026-05-05 09:28 30.61341 -77.10685 40060 ft 428 kts 251°
2026-05-05 09:29 30.59319 -77.17181 40076 ft 428 kts 251°
2026-05-05 09:29 30.57271 -77.23681 40066 ft 428 kts 251°
2026-05-05 09:30 30.55208 -77.30166 40058 ft 429 kts 251°
2026-05-05 09:30 30.53136 -77.36647 40059 ft 429 kts 251°
2026-05-05 09:31 30.51061 -77.43128 40058 ft 429 kts 251°
2026-05-05 09:31 30.48993 -77.49574 40066 ft 429 kts 251°
2026-05-05 09:32 30.46911 -77.56054 40059 ft 429 kts 251°
2026-05-05 09:32 30.44825 -77.62533 40051 ft 429 kts 251°
2026-05-05 09:33 30.42735 -77.69013 40062 ft 429 kts 251°
2026-05-05 09:33 30.39783 -77.74992 40065 ft 432 kts 232°
2026-05-05 09:34 30.35346 -77.79593 40063 ft 437 kts 218°
2026-05-05 09:34 30.30348 -77.83548 40055 ft 439 kts 217°
2026-05-05 09:35 30.25323 -77.87508 40058 ft 440 kts 218°
2026-05-05 09:35 30.17770 -77.93550 40053 ft 441 kts 218°
2026-05-05 09:36 30.12730 -77.97599 40057 ft 441 kts 218°
2026-05-05 09:36 30.07686 -78.01649 40058 ft 441 kts 218°
2026-05-05 09:37 30.02643 -78.05691 40052 ft 441 kts 218°
2026-05-05 09:37 29.97638 -78.09697 40046 ft 441 kts 218°
2026-05-05 09:38 29.92598 -78.13726 40045 ft 440 kts 218°
2026-05-05 09:38 29.87565 -78.17744 40054 ft 440 kts 218°
2026-05-05 09:39 29.82532 -78.21758 40040 ft 440 kts 218°
2026-05-05 09:39 29.77499 -78.25766 40035 ft 440 kts 218°
2026-05-05 09:40 29.72466 -78.29770 40031 ft 439 kts 218°
2026-05-05 09:40 29.67437 -78.33766 40038 ft 439 kts 218°
2026-05-05 09:41 29.62397 -78.37766 40038 ft 439 kts 218°
2026-05-05 09:41 29.57363 -78.41756 40036 ft 440 kts 218°
2026-05-05 09:42 29.52326 -78.45746 40041 ft 440 kts 218°
2026-05-05 09:42 29.47322 -78.49715 40041 ft 440 kts 219°
2026-05-05 09:43 29.42413 -78.53861 40026 ft 434 kts 228°
2026-05-05 09:43 29.38898 -78.59378 40049 ft 426 kts 246°
2026-05-05 09:44 29.36932 -78.65731 40044 ft 423 kts 254°
2026-05-05 09:44 29.35053 -78.72141 40037 ft 425 kts 253°
2026-05-05 09:45 29.33075 -78.78535 40033 ft 426 kts 253°
2026-05-05 09:45 29.31100 -78.84939 40028 ft 426 kts 253°
2026-05-05 09:46 29.29133 -78.91340 40027 ft 425 kts 253°
2026-05-05 09:46 29.27233 -78.97708 40029 ft 425 kts 254°
2026-05-05 09:47 29.25338 -79.04109 40027 ft 424 kts 253°
2026-05-05 09:47 29.23437 -79.10496 40028 ft 423 kts 254°
2026-05-05 09:48 29.21676 -79.16913 40030 ft 423 kts 254°
2026-05-05 09:48 29.19670 -79.23248 40031 ft 423 kts 252°
2026-05-05 09:49 29.17637 -79.29566 40028 ft 423 kts 253°
2026-05-05 09:49 29.15674 -79.35918 40027 ft 423 kts 254°
2026-05-05 09:50 29.14716 -79.39126 39589 ft 430 kts 254°
2026-05-05 09:50 29.13747 -79.42380 39008 ft 432 kts 254°
2026-05-05 09:50 29.12772 -79.45632 38355 ft 432 kts 253°
2026-05-05 09:50 29.11791 -79.48890 37683 ft 434 kts 254°
2026-05-05 09:51 29.10807 -79.52154 36986 ft 435 kts 254°
2026-05-05 09:51 29.09812 -79.55435 36266 ft 436 kts 254°
2026-05-05 09:51 29.08828 -79.58682 35493 ft 439 kts 254°
2026-05-05 09:51 29.07824 -79.61997 34622 ft 444 kts 254°
2026-05-05 09:52 29.06810 -79.65348 33727 ft 448 kts 254°
2026-05-05 09:52 29.05783 -79.68734 32792 ft 453 kts 254°
2026-05-05 09:52 29.04744 -79.72155 31809 ft 457 kts 253°
2026-05-05 09:52 29.03697 -79.75598 30773 ft 461 kts 253°
2026-05-05 09:53 29.02649 -79.79034 30516 ft 452 kts 253°
2026-05-05 09:53 29.01606 -79.82453 30508 ft 460 kts 253°
2026-05-05 09:53 28.99474 -79.89457 30529 ft 470 kts 253°
2026-05-05 09:54 28.98454 -79.92937 29881 ft 455 kts 254°
2026-05-05 09:54 28.97513 -79.96290 28807 ft 444 kts 254°
2026-05-05 09:54 28.96593 -79.99627 27500 ft 437 kts 254°
2026-05-05 09:54 28.95687 -80.02917 26095 ft 433 kts 254°
2026-05-05 09:55 28.94782 -80.06182 24682 ft 429 kts 253°
2026-05-05 09:55 28.93879 -80.09413 23371 ft 424 kts 253°
2026-05-05 09:55 28.92984 -80.12596 22167 ft 422 kts 253°
2026-05-05 09:55 28.92081 -80.15796 21317 ft 422 kts 253°
2026-05-05 09:56 28.91185 -80.18968 20543 ft 418 kts 253°
2026-05-05 09:56 28.90293 -80.22119 19790 ft 415 kts 253°
2026-05-05 09:56 28.89410 -80.25236 19045 ft 411 kts 253°
2026-05-05 09:56 28.88535 -80.28329 18320 ft 408 kts 253°
2026-05-05 09:57 28.87667 -80.31394 17611 ft 404 kts 252°
2026-05-05 09:57 28.86804 -80.34430 16909 ft 401 kts 252°
2026-05-05 09:57 28.85957 -80.37403 16226 ft 397 kts 252°
2026-05-05 09:57 28.85109 -80.40385 15552 ft 394 kts 252°
2026-05-05 09:58 28.84266 -80.43348 14864 ft 390 kts 252°
2026-05-05 09:58 28.83427 -80.46291 14203 ft 388 kts 252°
2026-05-05 09:58 28.82794 -80.49208 13860 ft 374 kts 262°
2026-05-05 09:58 28.82547 -80.52145 13696 ft 371 kts 265°
2026-05-05 09:59 28.82360 -80.55098 13531 ft 376 kts 265°
2026-05-05 09:59 28.82168 -80.58046 13354 ft 378 kts 265°
2026-05-05 09:59 28.81955 -80.61034 13178 ft 377 kts 265°
2026-05-05 09:59 28.81731 -80.63999 13003 ft 375 kts 264°
2026-05-05 10:00 28.81500 -80.66903 12838 ft 374 kts 264°
2026-05-05 10:00 28.81258 -80.69897 12663 ft 372 kts 264°
2026-05-05 10:00 28.81017 -80.72838 12498 ft 372 kts 264°
2026-05-05 10:00 28.80773 -80.75773 12331 ft 372 kts 264°
2026-05-05 10:01 28.80530 -80.78707 12178 ft 371 kts 264°
2026-05-05 10:01 28.80286 -80.81631 12002 ft 371 kts 264°
2026-05-05 10:01 28.80041 -80.84553 11842 ft 370 kts 264°
2026-05-05 10:01 28.79796 -80.87472 11675 ft 370 kts 264°
2026-05-05 10:02 28.79550 -80.90395 11515 ft 369 kts 264°
2026-05-05 10:02 28.79308 -80.93303 11344 ft 369 kts 264°
2026-05-05 10:02 28.79063 -80.96221 11183 ft 369 kts 264°
2026-05-05 10:02 28.78815 -80.99127 11019 ft 368 kts 264°
2026-05-05 10:03 28.78501 -81.01993 10835 ft 355 kts 256°
2026-05-05 10:03 28.77949 -81.03712 10728 ft 345 kts 242°
2026-05-05 10:03 28.76580 -81.05860 10591 ft 326 kts 230°
2026-05-05 10:03 28.75151 -81.07809 10448 ft 314 kts 231°
2026-05-05 10:04 28.73803 -81.09711 10291 ft 303 kts 231°
2026-05-05 10:04 28.72507 -81.11549 10171 ft 292 kts 231°
2026-05-05 10:04 28.70775 -81.13850 9996 ft 287 kts 219°
2026-05-05 10:04 28.69617 -81.14648 9850 ft 288 kts 200°
2026-05-05 10:05 28.67708 -81.15196 9633 ft 281 kts 192°
2026-05-05 10:05 28.65823 -81.15664 9406 ft 279 kts 193°
2026-05-05 10:05 28.63919 -81.16152 9164 ft 276 kts 193°
2026-05-05 10:05 28.62079 -81.16628 8937 ft 275 kts 193°
2026-05-05 10:06 28.60214 -81.17111 8703 ft 275 kts 193°
2026-05-05 10:06 28.58354 -81.17593 8467 ft 274 kts 193°
2026-05-05 10:06 28.56501 -81.18074 8241 ft 271 kts 193°
2026-05-05 10:06 28.54676 -81.18547 8008 ft 266 kts 192°
2026-05-05 10:07 28.52856 -81.18766 7763 ft 261 kts 181°
2026-05-05 10:07 28.51053 -81.18744 7545 ft 258 kts 179°
2026-05-05 10:07 28.49254 -81.18713 7320 ft 258 kts 179°
2026-05-05 10:07 28.47486 -81.18701 7091 ft 259 kts 180°
2026-05-05 10:08 28.45672 -81.18705 6867 ft 260 kts 180°
2026-05-05 10:08 28.43866 -81.18717 6621 ft 259 kts 180°
2026-05-05 10:08 28.42075 -81.18728 6395 ft 257 kts 180°
2026-05-05 10:08 28.40295 -81.18742 6189 ft 254 kts 180°
2026-05-05 10:09 28.38553 -81.18751 5975 ft 248 kts 180°
2026-05-05 10:09 28.36818 -81.18764 5732 ft 250 kts 180°
2026-05-05 10:09 28.35062 -81.18783 5549 ft 252 kts 180°
2026-05-05 10:09 28.33318 -81.18793 5324 ft 248 kts 180°
2026-05-05 10:10 28.31613 -81.18807 5101 ft 242 kts 180°
2026-05-05 10:10 28.29975 -81.18799 5029 ft 230 kts 178°
2026-05-05 10:10 28.28385 -81.18758 5001 ft 227 kts 178°
2026-05-05 10:10 28.26805 -81.18711 4999 ft 227 kts 178°
2026-05-05 10:11 28.25220 -81.18659 5002 ft 228 kts 178°
2026-05-05 10:11 28.23628 -81.18607 5002 ft 229 kts 178°
2026-05-05 10:11 28.22038 -81.18555 4889 ft 227 kts 178°
2026-05-05 10:11 28.20456 -81.18524 4563 ft 227 kts 179°
2026-05-05 10:12 28.18892 -81.18579 4205 ft 224 kts 190°
2026-05-05 10:12 28.17528 -81.19413 4038 ft 230 kts 225°
2026-05-05 10:12 28.16778 -81.21000 3997 ft 230 kts 258°
2026-05-05 10:12 28.16905 -81.22780 4001 ft 230 kts 291°
2026-05-05 10:13 28.17657 -81.24375 4011 ft 231 kts 302°
2026-05-05 10:13 28.18508 -81.25915 3997 ft 230 kts 303°
2026-05-05 10:13 28.19513 -81.27282 3988 ft 225 kts 326°
2026-05-05 10:13 28.20948 -81.27857 4002 ft 223 kts 353°
2026-05-05 10:14 28.22508 -81.28010 3828 ft 227 kts 358°
2026-05-05 10:14 28.24060 -81.28056 3533 ft 219 kts
2026-05-05 10:14 28.25561 -81.28070 3252 ft 212 kts
2026-05-05 10:14 28.27015 -81.28083 2971 ft 206 kts
2026-05-05 10:15 28.28426 -81.28096 2702 ft 199 kts
2026-05-05 10:15 28.29747 -81.28109 2449 ft 184 kts
2026-05-05 10:15 28.30969 -81.28122 2233 ft 169 kts
2026-05-05 10:15 28.32098 -81.28133 1995 ft 154 kts
2026-05-05 10:16 28.33117 -81.28144 1826 ft 141 kts
2026-05-05 10:16 28.34102 -81.28153 1641 ft 142 kts
2026-05-05 10:16 28.35081 -81.28168 1455 ft 139 kts 359°
2026-05-05 10:16 28.36051 -81.28180 1270 ft 139 kts
2026-05-05 10:17 28.37006 -81.28185 1082 ft 139 kts
2026-05-05 10:17 28.37982 -81.28136 899 ft 138 kts
2026-05-05 10:17 28.38941 -81.28167 718 ft 139 kts 357°
2026-05-05 10:17 28.39887 -81.28223 524 ft 137 kts
2026-05-05 10:18 28.40845 -81.28224 350 ft 139 kts
2026-05-05 10:18 28.41804 -81.28232 159 ft 137 kts
2026-05-05 10:18 28.42719 -81.28242 104 ft 117 kts
2026-05-05 10:18 28.43348 -81.28247 102 ft 64 kts 359°
2026-05-05 10:19 28.43700 -81.28250 105 ft 38 kts 358°
2026-05-05 10:19 28.43854 -81.28321 104 ft 14 kts 310°
2026-05-05 10:19 28.43881 -81.28360 101 ft 3 kts 304°
2026-05-05 10:19 28.43874 -81.28468 102 ft 20 kts 266°
2026-05-05 10:20 28.43874 -81.28622 107 ft 19 kts 270°
2026-05-05 10:20 28.43872 -81.28772 110 ft 19 kts 269°
2026-05-05 10:20 28.43870 -81.28923 109 ft 19 kts 269°
2026-05-05 10:20 28.43871 -81.29074 109 ft 19 kts 270°
2026-05-05 10:21 28.43867 -81.29219 101 ft 17 kts 260°
2026-05-05 10:21 28.43776 -81.29264 104 ft 17 kts 181°
2026-05-05 10:21 28.43649 -81.29262 104 ft 20 kts 179°
2026-05-05 10:21 28.43553 -81.29316 104 ft 16 kts 259°
2026-05-05 10:22 28.43550 -81.29462 104 ft 20 kts 269°
2026-05-05 10:22 28.43549 -81.29649 103 ft 24 kts 269°
2026-05-05 10:22 28.43526 -81.29789 101 ft 17 kts 216°
2026-05-05 10:22 28.43387 -81.29805 99 ft 24 kts 178°
2026-05-05 10:23 28.43207 -81.29802 101 ft 29 kts 180°
2026-05-05 10:23 28.42980 -81.29800 99 ft 40 kts 179°
2026-05-05 10:23 28.42705 -81.29797 98 ft 38 kts 180°
2026-05-05 10:23 28.42466 -81.29794 99 ft 30 kts 179°
2026-05-05 10:24 28.42311 -81.29792 99 ft 10 kts 179°
2026-05-05 10:24 28.42283 -81.29830 99 ft 9 kts 259°
2026-05-05 10:24 28.42279 -81.29950 99 ft 19 kts 269°
2026-05-05 10:24 28.42277 -81.30100 99 ft 19 kts 269°
2026-05-05 10:25 28.42275 -81.30251 99 ft 19 kts 269°
2026-05-05 10:25 28.42271 -81.30405 99 ft 22 kts 266°
2026-05-05 10:25 28.42258 -81.30608 101 ft 28 kts 265°
2026-05-05 10:25 28.42240 -81.30856 99 ft 35 kts 266°
2026-05-05 10:26 28.42252 -81.31145 100 ft 39 kts 281°
2026-05-05 10:26 28.42268 -81.31446 100 ft 36 kts 269°
2026-05-05 10:26 28.42265 -81.31696 103 ft 20 kts 269°
2026-05-05 10:26 28.42226 -81.31775 104 ft 11 kts 191°
2026-05-05 10:27 28.42132 -81.31789 104 ft 17 kts 186°
2026-05-05 10:27 28.41994 -81.31794 104 ft 23 kts 180°
2026-05-05 10:27 28.41821 -81.31792 103 ft 27 kts 179°
2026-05-05 10:27 28.41613 -81.31791 103 ft 33 kts 180°
2026-05-05 10:28 28.41391 -81.31803 103 ft 30 kts 184°
2026-05-05 10:28 28.41187 -81.31804 101 ft 27 kts 180°
2026-05-05 10:28 28.41027 -81.31801 101 ft 14 kts 166°
2026-05-05 10:28 28.40995 -81.31711 101 ft 11 kts 93°
2026-05-05 10:29 28.40995 -81.31635 101 ft 6 kts 88°
2026-05-05 10:29 28.41020 -81.31615 102 ft 5 kts 14°
2026-05-05 10:29 28.41057 -81.31611 99 ft 5 kts
2026-05-05 10:29 28.41082 -81.31613 99 ft 3 kts 358°
2026-05-05 10:30 28.41092 -81.31613 99 ft 0 kts 359°
2026-05-05 10:30 28.41096 -81.31613 99 ft 1 kts 359°
2026-05-05 10:30 28.41097 -81.31613 99 ft 0 kts 359°